Time,TemperatureF,DewpointF,PressureIn,WindDirection,WindDirectionDegrees,WindSpeedMPH,WindSpeedGustMPH,Humidity,HourlyPrecipIn,Conditions,Clouds,dailyrainin,SoftwareType,DateUTC
2013-05-23 00:03:00,78.8,70.2,29.78,ESE,121,4.0,6.0,75,0.00,,,0.00,Wunderground v.1.15,2013-05-23 05:03:00,
2013-05-23 00:06:00,78.6,70.0,29.78,SE,138,4.0,8.0,75,0.00,,,0.00,Wunderground v.1.15,2013-05-23 05:06:00,
2013-05-23 00:08:00,78.5,69.9,29.78,SE,138,5.0,8.0,75,0.00,,,0.00,Wunderground v.1.15,2013-05-23 05:08:00,
2013-05-23 00:11:00,78.5,69.9,29.78,SE,133,5.0,6.0,75,0.00,,,0.00,Wunderground v.1.15,2013-05-23 05:11:00,
2013-05-23 00:13:00,78.3,70.1,29.78,SE,130,4.0,6.0,76,0.00,,,0.00,Wunderground v.1.15,2013-05-23 05:13:00,
2013-05-23 00:15:00,78.3,70.1,29.78,ESE,114,4.0,6.0,76,0.00,,,0.00,Wunderground v.1.15,2013-05-23 05:15:00,
2013-05-23 00:18:00,78.1,69.9,29.79,SSE,161,4.0,4.0,76,0.00,,,0.00,Wunderground v.1.15,2013-05-23 05:18:00,
2013-05-23 00:20:00,78.1,69.9,29.79,SE,126,4.0,6.0,76,0.00,,,0.00,Wunderground v.1.15,2013-05-23 05:20:00,
2013-05-23 00:21:00,77.9,70.1,29.79,SE,126,4.0,6.0,77,0.00,,,0.00,Wunderground v.1.15,2013-05-23 05:21:00,
2013-05-23 00:22:00,77.9,70.1,29.79,SE,126,4.0,6.0,77,0.00,,,0.00,Wunderground v.1.15,2013-05-23 05:22:00,
2013-05-23 00:28:00,77.7,69.9,29.79,SSE,150,3.0,3.0,77,0.00,,,0.00,Wunderground v.1.15,2013-05-23 05:28:00,
2013-05-23 00:29:00,77.7,69.9,29.79,SSE,150,3.0,3.0,77,0.00,,,0.00,Wunderground v.1.15,2013-05-23 05:29:00,
2013-05-23 00:30:00,77.7,69.9,29.79,SSE,150,2.0,3.0,77,0.00,,,0.00,Wunderground v.1.15,2013-05-23 05:30:00,
2013-05-23 00:34:00,77.6,70.2,29.78,SSE,150,1.0,3.0,78,0.00,,,0.00,Wunderground v.1.15,2013-05-23 05:34:00,
2013-05-23 00:35:00,77.6,70.2,29.78,SSE,150,1.0,3.0,78,0.00,,,0.00,Wunderground v.1.15,2013-05-23 05:35:00,
2013-05-23 00:36:00,77.6,70.2,29.78,SSE,150,1.0,3.0,78,0.00,,,0.00,Wunderground v.1.15,2013-05-23 05:36:00,
2013-05-23 00:38:00,77.4,70.0,29.78,SSE,150,0.0,0.0,78,0.00,,,0.00,Wunderground v.1.15,2013-05-23 05:38:00,
2013-05-23 00:42:00,77.4,70.0,29.78,SSE,150,0.0,1.0,78,0.00,,,0.00,Wunderground v.1.15,2013-05-23 05:42:00,
2013-05-23 00:43:00,77.2,69.8,29.78,SSE,150,0.0,1.0,78,0.00,,,0.00,Wunderground v.1.15,2013-05-23 05:43:00,
2013-05-23 00:45:00,77.2,69.8,29.78,SSE,150,0.0,2.0,78,0.00,,,0.00,Wunderground v.1.15,2013-05-23 05:45:00,
2013-05-23 00:46:00,77.2,69.8,29.78,SSE,150,0.0,2.0,78,0.00,,,0.00,Wunderground v.1.15,2013-05-23 05:46:00,
2013-05-23 00:50:00,77.0,70.0,29.78,SE,134,1.0,5.0,79,0.00,,,0.00,Wunderground v.1.15,2013-05-23 05:50:00,
2013-05-23 00:51:00,77.0,70.0,29.78,SE,134,1.0,5.0,79,0.00,,,0.00,Wunderground v.1.15,2013-05-23 05:51:00,
2013-05-23 00:52:00,77.0,70.0,29.78,SE,134,1.0,5.0,79,0.00,,,0.00,Wunderground v.1.15,2013-05-23 05:52:00,
2013-05-23 00:54:00,77.0,70.0,29.78,SE,136,2.0,5.0,79,0.00,,,0.00,Wunderground v.1.15,2013-05-23 05:54:00,
2013-05-23 00:56:00,76.8,69.8,29.78,SE,136,2.0,5.0,79,0.00,,,0.00,Wunderground v.1.15,2013-05-23 05:56:00,
2013-05-23 00:58:00,76.8,69.8,29.78,SSE,150,2.0,5.0,79,0.00,,,0.00,Wunderground v.1.15,2013-05-23 05:58:00,
2013-05-23 00:59:00,76.8,69.8,29.78,SSE,151,2.0,5.0,79,0.00,,,0.00,Wunderground v.1.15,2013-05-23 05:59:00,
2013-05-23 01:01:00,76.7,69.7,29.79,SSE,151,2.0,5.0,79,0.00,,,0.00,Wunderground v.1.15,2013-05-23 06:01:00,
2013-05-23 01:02:00,76.7,69.7,29.79,SSE,151,2.0,5.0,79,0.00,,,0.00,Wunderground v.1.15,2013-05-23 06:02:00,
2013-05-23 01:05:00,76.7,70.1,29.79,SSE,151,2.0,6.0,80,0.00,,,0.00,Wunderground v.1.15,2013-05-23 06:05:00,
2013-05-23 01:06:00,76.7,70.1,29.79,SSE,151,2.0,6.0,80,0.00,,,0.00,Wunderground v.1.15,2013-05-23 06:06:00,
2013-05-23 01:10:00,76.5,69.9,29.79,SSE,152,1.0,4.0,80,0.00,,,0.00,Wunderground v.1.15,2013-05-23 06:10:00,
2013-05-23 01:11:00,76.5,69.9,29.79,SSE,152,1.0,4.0,80,0.00,,,0.00,Wunderground v.1.15,2013-05-23 06:11:00,
2013-05-23 01:14:00,76.5,69.9,29.79,SE,140,2.0,6.0,80,0.00,,,0.00,Wunderground v.1.15,2013-05-23 06:14:00,
2013-05-23 01:16:00,76.5,69.9,29.78,SE,140,2.0,6.0,80,0.00,,,0.00,Wunderground v.1.15,2013-05-23 06:16:00,
2013-05-23 01:18:00,76.3,69.7,29.78,SE,145,2.0,2.0,80,0.00,,,0.00,Wunderground v.1.15,2013-05-23 06:18:00,
2013-05-23 01:19:00,76.3,69.7,29.78,SE,145,2.0,2.0,80,0.00,,,0.00,Wunderground v.1.15,2013-05-23 06:19:00,
2013-05-23 01:20:00,76.3,69.7,29.78,SSE,147,3.0,3.0,80,0.00,,,0.00,Wunderground v.1.15,2013-05-23 06:20:00,
2013-05-23 01:22:00,76.3,70.0,29.78,SSE,148,2.0,3.0,81,0.00,,,0.00,Wunderground v.1.15,2013-05-23 06:22:00,
2013-05-23 01:24:00,76.3,70.0,29.78,SSE,147,2.0,3.0,81,0.00,,,0.00,Wunderground v.1.15,2013-05-23 06:24:00,
2013-05-23 01:25:00,76.3,70.0,29.78,SSE,147,2.0,3.0,81,0.00,,,0.00,Wunderground v.1.15,2013-05-23 06:25:00,
2013-05-23 01:29:00,76.1,69.8,29.78,SSE,147,2.0,2.0,81,0.00,,,0.00,Wunderground v.1.15,2013-05-23 06:29:00,
2013-05-23 01:31:00,76.1,69.8,29.78,SSE,148,1.0,3.0,81,0.00,,,0.00,Wunderground v.1.15,2013-05-23 06:31:00,
2013-05-23 01:32:00,76.1,69.8,29.78,SSE,150,1.0,3.0,81,0.00,,,0.00,Wunderground v.1.15,2013-05-23 06:32:00,
2013-05-23 01:36:00,76.1,69.8,29.78,SSE,147,1.0,3.0,81,0.00,,,0.00,Wunderground v.1.15,2013-05-23 06:36:00,
2013-05-23 01:38:00,76.0,69.7,29.78,SSE,147,1.0,1.0,81,0.00,,,0.00,Wunderground v.1.15,2013-05-23 06:38:00,
2013-05-23 01:39:00,76.0,69.7,29.78,SSE,147,1.0,1.0,81,0.00,,,0.00,Wunderground v.1.15,2013-05-23 06:39:00,
2013-05-23 01:40:00,76.0,69.7,29.78,SSE,147,1.0,1.0,81,0.00,,,0.00,Wunderground v.1.15,2013-05-23 06:40:00,
2013-05-23 01:42:00,76.0,69.7,29.78,SSE,147,1.0,1.0,81,0.00,,,0.00,Wunderground v.1.15,2013-05-23 06:42:00,
2013-05-23 01:44:00,76.0,70.1,29.78,SE,144,1.0,3.0,82,0.00,,,0.00,Wunderground v.1.15,2013-05-23 06:44:00,
2013-05-23 01:46:00,76.0,70.1,29.78,SE,145,1.0,3.0,82,0.00,,,0.00,Wunderground v.1.15,2013-05-23 06:46:00,
2013-05-23 01:48:00,75.8,69.9,29.78,SE,145,1.0,2.0,82,0.00,,,0.00,Wunderground v.1.15,2013-05-23 06:48:00,
2013-05-23 01:49:00,75.8,69.9,29.78,SE,145,2.0,2.0,82,0.00,,,0.00,Wunderground v.1.15,2013-05-23 06:49:00,
2013-05-23 01:50:00,75.8,69.9,29.78,SE,145,2.0,2.0,82,0.00,,,0.00,Wunderground v.1.15,2013-05-23 06:50:00,
2013-05-23 01:52:00,75.8,69.9,29.78,SE,145,2.0,5.0,82,0.00,,,0.00,Wunderground v.1.15,2013-05-23 06:52:00,
2013-05-23 01:54:00,75.8,69.9,29.78,SE,145,2.0,5.0,82,0.00,,,0.00,Wunderground v.1.15,2013-05-23 06:54:00,
2013-05-23 01:55:00,75.8,69.9,29.78,SE,145,1.0,5.0,82,0.00,,,0.00,Wunderground v.1.15,2013-05-23 06:55:00,
2013-05-23 01:58:00,75.6,69.7,29.78,SE,145,1.0,3.0,82,0.00,,,0.00,Wunderground v.1.15,2013-05-23 06:58:00,
2013-05-23 02:00:00,75.6,69.7,29.78,SE,145,1.0,3.0,82,0.00,,,0.00,Wunderground v.1.15,2013-05-23 07:00:00,
2013-05-23 02:01:00,75.6,70.1,29.78,SE,145,1.0,3.0,83,0.00,,,0.00,Wunderground v.1.15,2013-05-23 07:01:00,
2013-05-23 02:02:00,75.6,70.1,29.78,SE,145,1.0,3.0,83,0.00,,,0.00,Wunderground v.1.15,2013-05-23 07:02:00,
2013-05-23 02:03:00,75.6,70.1,29.78,SE,145,1.0,3.0,83,0.00,,,0.00,Wunderground v.1.15,2013-05-23 07:03:00,
2013-05-23 02:04:00,75.6,70.1,29.78,SE,145,1.0,3.0,83,0.00,,,0.00,Wunderground v.1.15,2013-05-23 07:04:00,
2013-05-23 02:05:00,75.6,70.1,29.78,SE,145,1.0,3.0,83,0.00,,,0.00,Wunderground v.1.15,2013-05-23 07:05:00,
2013-05-23 02:08:00,75.4,69.9,29.78,SE,145,0.0,2.0,83,0.00,,,0.00,Wunderground v.1.15,2013-05-23 07:08:00,
2013-05-23 02:09:00,75.4,69.9,29.78,SE,145,0.0,2.0,83,0.00,,,0.00,Wunderground v.1.15,2013-05-23 07:09:00,
2013-05-23 02:11:00,75.4,69.9,29.78,SE,145,0.0,2.0,83,0.00,,,0.00,Wunderground v.1.15,2013-05-23 07:11:00,
2013-05-23 02:12:00,75.4,69.9,29.78,SE,145,1.0,2.0,83,0.00,,,0.00,Wunderground v.1.15,2013-05-23 07:12:00,
2013-05-23 02:14:00,75.3,69.8,29.78,SE,145,1.0,2.0,83,0.00,,,0.00,Wunderground v.1.15,2013-05-23 07:14:00,
2013-05-23 02:16:00,75.3,69.8,29.77,SE,145,1.0,2.0,83,0.00,,,0.00,Wunderground v.1.15,2013-05-23 07:16:00,
2013-05-23 02:20:00,75.1,69.9,29.77,SE,145,1.0,2.0,84,0.00,,,0.00,Wunderground v.1.15,2013-05-23 07:20:00,
2013-05-23 02:21:00,75.1,69.9,29.77,SSE,147,1.0,5.0,84,0.00,,,0.00,Wunderground v.1.15,2013-05-23 07:21:00,
2013-05-23 02:22:00,75.1,69.9,29.77,SE,133,1.0,5.0,84,0.00,,,0.00,Wunderground v.1.15,2013-05-23 07:22:00,
2013-05-23 02:25:00,75.1,69.9,29.77,SE,131,1.0,5.0,84,0.00,,,0.00,Wunderground v.1.15,2013-05-23 07:25:00,
2013-05-23 02:26:00,74.9,69.7,29.77,SE,131,1.0,5.0,84,0.00,,,0.00,Wunderground v.1.15,2013-05-23 07:26:00,
2013-05-23 02:29:00,74.9,70.1,29.77,SE,133,2.0,2.0,85,0.00,,,0.00,Wunderground v.1.15,2013-05-23 07:29:00,
2013-05-23 02:30:00,74.9,70.1,29.77,ESE,112,2.0,4.0,85,0.00,,,0.00,Wunderground v.1.15,2013-05-23 07:30:00,
2013-05-23 02:31:00,74.9,70.1,29.77,ESE,117,2.0,4.0,85,0.00,,,0.00,Wunderground v.1.15,2013-05-23 07:31:00,
2013-05-23 02:32:00,74.9,70.1,29.77,ESE,117,2.0,5.0,85,0.00,,,0.00,Wunderground v.1.15,2013-05-23 07:32:00,
2013-05-23 02:35:00,74.7,69.9,29.77,ESE,117,2.0,5.0,85,0.00,,,0.00,Wunderground v.1.15,2013-05-23 07:35:00,
2013-05-23 02:38:00,74.7,69.9,29.77,ESE,117,2.0,2.0,85,0.00,,,0.00,Wunderground v.1.15,2013-05-23 07:38:00,
2013-05-23 02:39:00,74.7,70.2,29.77,ESE,119,2.0,2.0,86,0.00,,,0.00,Wunderground v.1.15,2013-05-23 07:39:00,
2013-05-23 02:41:00,74.7,70.2,29.77,ESE,119,2.0,2.0,86,0.00,,,0.00,Wunderground v.1.15,2013-05-23 07:41:00,
2013-05-23 02:43:00,74.7,70.2,29.77,SE,144,1.0,6.0,86,0.00,,,0.00,Wunderground v.1.15,2013-05-23 07:43:00,
2013-05-23 02:46:00,74.7,70.2,29.77,ESE,119,2.0,8.0,86,0.00,,,0.00,Wunderground v.1.15,2013-05-23 07:46:00,
2013-05-23 02:48:00,74.7,70.2,29.77,SSE,147,2.0,2.0,86,0.00,,,0.00,Wunderground v.1.15,2013-05-23 07:48:00,
2013-05-23 02:49:00,74.6,70.1,29.77,South,169,3.0,3.0,86,0.00,,,0.00,Wunderground v.1.15,2013-05-23 07:49:00,
2013-05-23 02:51:00,74.6,70.1,29.77,SSE,164,3.0,3.0,86,0.00,,,0.00,Wunderground v.1.15,2013-05-23 07:51:00,
2013-05-23 02:53:00,74.6,70.1,29.77,SSE,164,3.0,3.0,86,0.00,,,0.00,Wunderground v.1.15,2013-05-23 07:53:00,
2013-05-23 02:55:00,74.6,70.1,29.77,SE,143,3.0,6.0,86,0.00,,,0.00,Wunderground v.1.15,2013-05-23 07:55:00,
2013-05-23 02:58:00,74.6,70.1,29.77,SE,145,2.0,3.0,86,0.00,,,0.00,Wunderground v.1.15,2013-05-23 07:58:00,
2013-05-23 03:00:00,74.6,70.1,29.77,SE,145,2.0,4.0,86,0.00,,,0.00,Wunderground v.1.15,2013-05-23 08:00:00,
2013-05-23 03:01:00,74.4,69.9,29.76,SE,145,2.0,4.0,86,0.00,,,0.00,Wunderground v.1.15,2013-05-23 08:01:00,
2013-05-23 03:03:00,74.4,70.3,29.76,SE,145,2.0,4.0,87,0.00,,,0.00,Wunderground v.1.15,2013-05-23 08:03:00,
2013-05-23 03:05:00,74.4,70.3,29.76,SSE,151,2.0,6.0,87,0.00,,,0.00,Wunderground v.1.15,2013-05-23 08:05:00,
2013-05-23 03:06:00,74.4,70.3,29.76,SSE,154,2.0,6.0,87,0.00,,,0.00,Wunderground v.1.15,2013-05-23 08:06:00,
2013-05-23 03:10:00,74.2,70.1,29.76,SSE,147,2.0,5.0,87,0.00,,,0.00,Wunderground v.1.15,2013-05-23 08:10:00,
2013-05-23 03:11:00,74.2,70.1,29.76,SE,138,2.0,5.0,87,0.00,,,0.00,Wunderground v.1.15,2013-05-23 08:11:00,
2013-05-23 03:12:00,74.2,70.1,29.76,SE,143,2.0,5.0,87,0.00,,,0.00,Wunderground v.1.15,2013-05-23 08:12:00,
2013-05-23 03:13:00,74.2,70.1,29.76,SE,143,3.0,5.0,87,0.00,,,0.00,Wunderground v.1.15,2013-05-23 08:13:00,
2013-05-23 03:15:00,74.2,70.1,29.76,SSE,150,3.0,5.0,87,0.00,,,0.00,Wunderground v.1.15,2013-05-23 08:15:00,
2013-05-23 03:19:00,74.0,70.2,29.76,ESE,114,3.0,3.0,88,0.00,,,0.00,Wunderground v.1.15,2013-05-23 08:19:00,
2013-05-23 03:20:00,74.0,70.2,29.76,SE,130,3.0,3.0,88,0.00,,,0.00,Wunderground v.1.15,2013-05-23 08:20:00,
2013-05-23 03:21:00,74.0,70.2,29.76,SE,130,3.0,3.0,88,0.00,,,0.00,Wunderground v.1.15,2013-05-23 08:21:00,
2013-05-23 03:23:00,74.0,70.2,29.76,SE,131,2.0,5.0,88,0.00,,,0.00,Wunderground v.1.15,2013-05-23 08:23:00,
2013-05-23 03:25:00,74.0,70.2,29.76,SE,130,2.0,7.0,88,0.00,,,0.00,Wunderground v.1.15,2013-05-23 08:25:00,
2013-05-23 03:28:00,74.0,70.2,29.76,SE,130,2.0,3.0,88,0.00,,,0.00,Wunderground v.1.15,2013-05-23 08:28:00,
2013-05-23 03:29:00,74.0,70.2,29.76,SE,137,3.0,5.0,88,0.00,,,0.00,Wunderground v.1.15,2013-05-23 08:29:00,
2013-05-23 03:33:00,74.0,70.2,29.77,SE,130,3.0,7.0,88,0.00,,,0.00,Wunderground v.1.15,2013-05-23 08:33:00,
2013-05-23 03:34:00,74.0,70.2,29.77,SE,131,3.0,7.0,88,0.00,,,0.00,Wunderground v.1.15,2013-05-23 08:34:00,
2013-05-23 03:35:00,74.0,70.6,29.77,SE,133,4.0,7.0,89,0.00,,,0.00,Wunderground v.1.15,2013-05-23 08:35:00,
2013-05-23 03:39:00,74.0,70.6,29.77,ESE,112,4.0,4.0,89,0.00,,,0.00,Wunderground v.1.15,2013-05-23 08:39:00,
2013-05-23 03:40:00,74.0,70.6,29.77,ESE,112,4.0,4.0,89,0.00,,,0.00,Wunderground v.1.15,2013-05-23 08:40:00,
2013-05-23 03:42:00,73.9,70.5,29.77,ESE,120,4.0,4.0,89,0.00,,,0.00,Wunderground v.1.15,2013-05-23 08:42:00,
2013-05-23 03:44:00,73.9,70.5,29.77,ESE,116,3.0,4.0,89,0.00,,,0.00,Wunderground v.1.15,2013-05-23 08:44:00,
2013-05-23 03:45:00,73.9,70.5,29.77,ESE,116,3.0,4.0,89,0.00,,,0.00,Wunderground v.1.15,2013-05-23 08:45:00,
2013-05-23 03:46:00,73.9,70.5,29.76,ESE,116,3.0,4.0,89,0.00,,,0.00,Wunderground v.1.15,2013-05-23 08:46:00,
2013-05-23 03:51:00,73.9,70.5,29.76,ESE,116,2.0,3.0,89,0.00,,,0.00,Wunderground v.1.15,2013-05-23 08:51:00,
2013-05-23 03:52:00,73.9,70.5,29.76,ESE,116,2.0,3.0,89,0.00,,,0.00,Wunderground v.1.15,2013-05-23 08:52:00,
2013-05-23 03:53:00,73.9,70.5,29.76,ESE,116,2.0,3.0,89,0.00,,,0.00,Wunderground v.1.15,2013-05-23 08:53:00,
2013-05-23 03:55:00,73.9,70.5,29.76,ESE,103,2.0,5.0,89,0.00,,,0.00,Wunderground v.1.15,2013-05-23 08:55:00,
2013-05-23 04:00:00,73.7,70.3,29.76,SSE,155,2.0,3.0,89,0.00,,,0.00,Wunderground v.1.15,2013-05-23 09:00:00,
2013-05-23 04:01:00,73.7,70.3,29.76,SSE,157,3.0,6.0,89,0.00,,,0.00,Wunderground v.1.15,2013-05-23 09:01:00,
2013-05-23 04:03:00,73.7,70.3,29.76,SE,144,3.0,6.0,89,0.00,,,0.00,Wunderground v.1.15,2013-05-23 09:03:00,
2013-05-23 04:04:00,73.7,70.3,29.76,SSE,150,3.0,6.0,89,0.00,,,0.00,Wunderground v.1.15,2013-05-23 09:04:00,
2013-05-23 04:05:00,73.7,70.3,29.76,SE,130,3.0,6.0,89,0.00,,,0.00,Wunderground v.1.15,2013-05-23 09:05:00,
2013-05-23 04:06:00,73.7,70.3,29.76,SE,130,4.0,6.0,89,0.00,,,0.00,Wunderground v.1.15,2013-05-23 09:06:00,
2013-05-23 04:07:00,73.7,70.3,29.76,SE,130,4.0,6.0,89,0.00,,,0.00,Wunderground v.1.15,2013-05-23 09:07:00,
2013-05-23 04:10:00,73.7,70.3,29.76,ESE,113,4.0,8.0,89,0.00,,,0.00,Wunderground v.1.15,2013-05-23 09:10:00,
2013-05-23 04:13:00,73.7,70.3,29.76,SE,136,5.0,8.0,89,0.00,,,0.00,Wunderground v.1.15,2013-05-23 09:13:00,
2013-05-23 04:14:00,73.5,70.1,29.76,ESE,117,5.0,8.0,89,0.00,,,0.00,Wunderground v.1.15,2013-05-23 09:14:00,
2013-05-23 04:15:00,73.5,70.1,29.76,ESE,116,5.0,8.0,89,0.00,,,0.00,Wunderground v.1.15,2013-05-23 09:15:00,
2013-05-23 04:19:00,73.5,70.1,29.76,SE,126,5.0,7.0,89,0.00,,,0.00,Wunderground v.1.15,2013-05-23 09:19:00,
2013-05-23 04:20:00,73.5,70.1,29.76,ESE,119,5.0,7.0,89,0.00,,,0.00,Wunderground v.1.15,2013-05-23 09:20:00,
2013-05-23 04:21:00,73.5,70.1,29.76,ESE,112,5.0,7.0,89,0.00,,,0.00,Wunderground v.1.15,2013-05-23 09:21:00,
2013-05-23 04:23:00,73.5,70.1,29.76,SE,145,5.0,7.0,89,0.00,,,0.00,Wunderground v.1.15,2013-05-23 09:23:00,
2013-05-23 04:27:00,73.5,70.1,29.76,SE,140,5.0,7.0,89,0.00,,,0.00,Wunderground v.1.15,2013-05-23 09:27:00,
2013-05-23 04:29:00,73.5,70.1,29.76,SE,137,5.0,5.0,89,0.00,,,0.00,Wunderground v.1.15,2013-05-23 09:29:00,
2013-05-23 04:30:00,73.5,70.1,29.76,SE,141,5.0,6.0,89,0.00,,,0.00,Wunderground v.1.15,2013-05-23 09:30:00,
2013-05-23 04:32:00,73.5,70.1,29.77,SE,140,4.0,6.0,89,0.00,,,0.00,Wunderground v.1.15,2013-05-23 09:32:00,
2013-05-23 04:34:00,73.7,70.3,29.77,SE,138,4.0,6.0,89,0.00,,,0.00,Wunderground v.1.15,2013-05-23 09:34:00,
2013-05-23 04:35:00,73.5,70.1,29.77,SE,138,4.0,6.0,89,0.00,,,0.00,Wunderground v.1.15,2013-05-23 09:35:00,
2013-05-23 04:37:00,73.7,70.3,29.77,SE,138,4.0,6.0,89,0.00,,,0.00,Wunderground v.1.15,2013-05-23 09:37:00,
2013-05-23 04:39:00,73.7,70.3,29.77,SE,136,3.0,3.0,89,0.00,,,0.00,Wunderground v.1.15,2013-05-23 09:39:00,
2013-05-23 04:40:00,73.7,70.3,29.77,SE,137,3.0,4.0,89,0.00,,,0.00,Wunderground v.1.15,2013-05-23 09:40:00,
2013-05-23 04:42:00,73.7,70.3,29.77,ESE,123,3.0,7.0,89,0.00,,,0.00,Wunderground v.1.15,2013-05-23 09:42:00,
2013-05-23 04:45:00,73.5,70.1,29.77,East,89,4.0,7.0,89,0.00,,,0.00,Wunderground v.1.15,2013-05-23 09:45:00,
2013-05-23 04:47:00,73.5,70.1,29.77,ESE,123,5.0,7.0,89,0.00,,,0.00,Wunderground v.1.15,2013-05-23 09:47:00,
2013-05-23 04:49:00,73.5,69.7,29.77,SE,143,5.0,6.0,88,0.00,,,0.00,Wunderground v.1.15,2013-05-23 09:49:00,
2013-05-23 04:50:00,73.5,69.7,29.77,ESE,121,5.0,6.0,88,0.00,,,0.00,Wunderground v.1.15,2013-05-23 09:50:00,
2013-05-23 04:52:00,73.7,69.9,29.77,ESE,121,5.0,6.0,88,0.00,,,0.00,Wunderground v.1.15,2013-05-23 09:52:00,
2013-05-23 04:57:00,73.7,69.9,29.77,SE,140,3.0,6.0,88,0.00,,,0.00,Wunderground v.1.15,2013-05-23 09:57:00,
2013-05-23 04:59:00,73.7,69.9,29.77,SE,140,2.0,2.0,88,0.00,,,0.00,Wunderground v.1.15,2013-05-23 09:59:00,
2013-05-23 05:01:00,73.7,69.9,29.77,ESE,120,2.0,6.0,88,0.00,,,0.00,Wunderground v.1.15,2013-05-23 10:01:00,
2013-05-23 05:04:00,73.7,69.9,29.77,SE,143,2.0,7.0,88,0.00,,,0.00,Wunderground v.1.15,2013-05-23 10:04:00,
2013-05-23 05:05:00,73.7,69.9,29.77,SE,143,2.0,7.0,88,0.00,,,0.00,Wunderground v.1.15,2013-05-23 10:05:00,
2013-05-23 05:06:00,73.7,69.9,29.77,SE,143,2.0,7.0,88,0.00,,,0.00,Wunderground v.1.15,2013-05-23 10:06:00,
2013-05-23 05:09:00,73.7,69.9,29.77,ESE,119,3.0,3.0,88,0.00,,,0.00,Wunderground v.1.15,2013-05-23 10:09:00,
2013-05-23 05:11:00,73.9,70.1,29.77,ESE,120,3.0,3.0,88,0.00,,,0.00,Wunderground v.1.15,2013-05-23 10:11:00,
2013-05-23 05:14:00,73.9,70.1,29.77,ESE,121,2.0,3.0,88,0.00,,,0.00,Wunderground v.1.15,2013-05-23 10:14:00,
2013-05-23 05:15:00,73.9,70.1,29.77,ESE,121,2.0,3.0,88,0.00,,,0.00,Wunderground v.1.15,2013-05-23 10:15:00,
2013-05-23 05:16:00,73.9,70.1,29.77,ESE,121,2.0,3.0,88,0.00,,,0.00,Wunderground v.1.15,2013-05-23 10:16:00,
2013-05-23 05:20:00,73.9,70.1,29.77,ESE,123,2.0,4.0,88,0.00,,,0.00,Wunderground v.1.15,2013-05-23 10:20:00,
2013-05-23 05:22:00,73.9,70.1,29.77,ESE,121,2.0,4.0,88,0.00,,,0.00,Wunderground v.1.15,2013-05-23 10:22:00,
2013-05-23 05:25:00,73.9,70.1,29.77,ESE,121,2.0,4.0,88,0.00,,,0.00,Wunderground v.1.15,2013-05-23 10:25:00,
2013-05-23 05:26:00,73.9,70.1,29.77,ESE,121,1.0,4.0,88,0.00,,,0.00,Wunderground v.1.15,2013-05-23 10:26:00,
2013-05-23 05:27:00,73.9,70.1,29.77,ESE,121,1.0,4.0,88,0.00,,,0.00,Wunderground v.1.15,2013-05-23 10:27:00,
2013-05-23 05:29:00,73.9,70.1,29.77,ESE,121,1.0,1.0,88,0.00,,,0.00,Wunderground v.1.15,2013-05-23 10:29:00,
2013-05-23 05:30:00,73.9,70.1,29.77,SE,127,1.0,6.0,88,0.00,,,0.00,Wunderground v.1.15,2013-05-23 10:30:00,
2013-05-23 05:31:00,73.9,70.1,29.77,SE,126,1.0,6.0,88,0.00,,,0.00,Wunderground v.1.15,2013-05-23 10:31:00,
2013-05-23 05:32:00,73.9,70.1,29.77,ESE,116,1.0,6.0,88,0.00,,,0.00,Wunderground v.1.15,2013-05-23 10:32:00,
2013-05-23 05:33:00,73.9,70.1,29.77,South,188,2.0,6.0,88,0.00,,,0.00,Wunderground v.1.15,2013-05-23 10:33:00,
2013-05-23 05:34:00,73.9,70.1,29.77,SSE,161,2.0,6.0,88,0.00,,,0.00,Wunderground v.1.15,2013-05-23 10:34:00,
2013-05-23 05:39:00,73.9,69.8,29.77,SE,136,3.0,3.0,87,0.00,,,0.00,Wunderground v.1.15,2013-05-23 10:39:00,
2013-05-23 05:41:00,73.9,69.8,29.77,SE,136,3.0,3.0,87,0.00,,,0.00,Wunderground v.1.15,2013-05-23 10:41:00,
2013-05-23 05:42:00,73.9,69.8,29.77,SE,136,3.0,3.0,87,0.00,,,0.00,Wunderground v.1.15,2013-05-23 10:42:00,
2013-05-23 05:43:00,73.9,69.8,29.77,SE,137,3.0,3.0,87,0.00,,,0.00,Wunderground v.1.15,2013-05-23 10:43:00,
2013-05-23 05:47:00,73.9,69.8,29.78,ESE,123,2.0,3.0,87,0.00,,,0.00,Wunderground v.1.15,2013-05-23 10:47:00,
2013-05-23 05:50:00,74.0,69.9,29.78,SE,136,3.0,3.0,87,0.00,,,0.00,Wunderground v.1.15,2013-05-23 10:50:00,
2013-05-23 05:51:00,74.0,69.9,29.78,SE,137,3.0,3.0,87,0.00,,,0.00,Wunderground v.1.15,2013-05-23 10:51:00,
2013-05-23 05:53:00,74.0,69.9,29.78,SE,145,3.0,3.0,87,0.00,,,0.00,Wunderground v.1.15,2013-05-23 10:53:00,
2013-05-23 05:55:00,74.0,69.9,29.78,SE,145,3.0,3.0,87,0.00,,,0.00,Wunderground v.1.15,2013-05-23 10:55:00,
2013-05-23 05:56:00,74.0,69.9,29.78,SE,124,3.0,4.0,87,0.00,,,0.00,Wunderground v.1.15,2013-05-23 10:56:00,
2013-05-23 05:59:00,74.0,69.9,29.78,SE,124,2.0,2.0,87,0.00,,,0.00,Wunderground v.1.15,2013-05-23 10:59:00,
2013-05-23 06:00:00,74.0,69.9,29.78,SE,124,2.0,2.0,87,0.00,,,0.00,Wunderground v.1.15,2013-05-23 11:00:00,
2013-05-23 06:01:00,74.0,69.9,29.78,SE,124,2.0,2.0,87,0.00,,,0.00,Wunderground v.1.15,2013-05-23 11:01:00,
2013-05-23 06:03:00,74.0,69.9,29.78,ESE,119,1.0,2.0,87,0.00,,,0.00,Wunderground v.1.15,2013-05-23 11:03:00,
2013-05-23 06:05:00,74.0,69.9,29.78,ESE,112,2.0,5.0,87,0.00,,,0.00,Wunderground v.1.15,2013-05-23 11:05:00,
2013-05-23 06:06:00,74.0,69.9,29.78,ESE,112,2.0,5.0,87,0.00,,,0.00,Wunderground v.1.15,2013-05-23 11:06:00,
2013-05-23 06:09:00,74.0,70.2,29.78,East,100,2.0,5.0,88,0.00,,,0.00,Wunderground v.1.15,2013-05-23 11:09:00,
2013-05-23 06:10:00,74.0,69.9,29.78,ENE,76,2.0,5.0,87,0.00,,,0.00,Wunderground v.1.15,2013-05-23 11:10:00,
2013-05-23 06:12:00,73.9,70.1,29.78,SE,126,3.0,6.0,88,0.00,,,0.00,Wunderground v.1.15,2013-05-23 11:12:00,
2013-05-23 06:13:00,73.9,70.1,29.78,SE,127,3.0,6.0,88,0.00,,,0.00,Wunderground v.1.15,2013-05-23 11:13:00,
2013-05-23 06:15:00,73.9,70.1,29.78,SE,136,3.0,6.0,88,0.00,,,0.00,Wunderground v.1.15,2013-05-23 11:15:00,
2013-05-23 06:19:00,73.9,69.8,29.79,ESE,117,4.0,4.0,87,0.00,,,0.00,Wunderground v.1.15,2013-05-23 11:19:00,
2013-05-23 06:21:00,73.9,69.8,29.79,ESE,117,4.0,10.0,87,0.00,,,0.00,Wunderground v.1.15,2013-05-23 11:21:00,
2013-05-23 06:22:00,73.9,69.8,29.79,ESE,112,4.0,10.0,87,0.00,,,0.00,Wunderground v.1.15,2013-05-23 11:22:00,
2013-05-23 06:26:00,73.7,69.6,29.79,ESE,120,4.0,10.0,87,0.00,,,0.00,Wunderground v.1.15,2013-05-23 11:26:00,
2013-05-23 06:27:00,73.9,69.8,29.79,ESE,123,4.0,10.0,87,0.00,,,0.00,Wunderground v.1.15,2013-05-23 11:27:00,
2013-05-23 06:29:00,73.7,69.6,29.79,ESE,123,4.0,4.0,87,0.00,,,0.00,Wunderground v.1.15,2013-05-23 11:29:00,
2013-05-23 06:30:00,73.9,69.8,29.79,ESE,121,4.0,4.0,87,0.00,,,0.00,Wunderground v.1.15,2013-05-23 11:30:00,
2013-05-23 06:32:00,73.9,69.8,29.80,ESE,121,3.0,4.0,87,0.00,,,0.00,Wunderground v.1.15,2013-05-23 11:32:00,
2013-05-23 06:34:00,73.9,69.8,29.80,ESE,106,3.0,6.0,87,0.00,,,0.00,Wunderground v.1.15,2013-05-23 11:34:00,
2013-05-23 06:36:00,73.9,69.8,29.80,ESE,107,3.0,6.0,87,0.00,,,0.00,Wunderground v.1.15,2013-05-23 11:36:00,
2013-05-23 06:41:00,73.9,69.8,29.80,ENE,75,2.0,3.0,87,0.00,,,0.00,Wunderground v.1.15,2013-05-23 11:41:00,
2013-05-23 06:42:00,73.9,69.8,29.80,ESE,113,3.0,7.0,87,0.00,,,0.00,Wunderground v.1.15,2013-05-23 11:42:00,
2013-05-23 06:43:00,73.9,69.8,29.80,East,99,3.0,7.0,87,0.00,,,0.00,Wunderground v.1.15,2013-05-23 11:43:00,
2013-05-23 06:45:00,73.9,69.8,29.80,ESE,120,3.0,7.0,87,0.00,,,0.00,Wunderground v.1.15,2013-05-23 11:45:00,
2013-05-23 06:47:00,73.9,69.8,29.80,ESE,103,3.0,8.0,87,0.00,,,0.00,Wunderground v.1.15,2013-05-23 11:47:00,
2013-05-23 06:49:00,73.9,69.8,29.80,ESE,110,3.0,4.0,87,0.00,,,0.00,Wunderground v.1.15,2013-05-23 11:49:00,
2013-05-23 06:53:00,73.9,69.8,29.80,ESE,114,4.0,7.0,87,0.00,,,0.00,Wunderground v.1.15,2013-05-23 11:53:00,
2013-05-23 06:54:00,73.9,69.8,29.80,SE,133,4.0,7.0,87,0.00,,,0.00,Wunderground v.1.15,2013-05-23 11:54:00,
2013-05-23 06:56:00,73.9,69.8,29.80,SSE,154,4.0,7.0,87,0.00,,,0.00,Wunderground v.1.15,2013-05-23 11:56:00,
2013-05-23 07:00:00,73.9,69.8,29.80,ESE,119,5.0,5.0,87,0.00,,,0.00,Wunderground v.1.15,2013-05-23 12:00:00,
2013-05-23 07:01:00,73.9,69.8,29.80,ESE,119,5.0,5.0,87,0.00,,,0.00,Wunderground v.1.15,2013-05-23 12:01:00,
2013-05-23 07:03:00,73.9,69.8,29.81,ESE,120,4.0,10.0,87,0.00,,,0.00,Wunderground v.1.15,2013-05-23 12:03:00,
2013-05-23 07:05:00,73.9,69.8,29.81,ESE,110,4.0,10.0,87,0.00,,,0.00,Wunderground v.1.15,2013-05-23 12:05:00,
2013-05-23 07:06:00,73.9,69.8,29.81,SE,138,4.0,10.0,87,0.00,,,0.00,Wunderground v.1.15,2013-05-23 12:06:00,
2013-05-23 07:09:00,73.9,69.4,29.81,SE,145,4.0,4.0,86,0.00,,,0.00,Wunderground v.1.15,2013-05-23 12:09:00,
2013-05-23 07:10:00,73.9,69.4,29.81,ESE,120,4.0,9.0,86,0.00,,,0.00,Wunderground v.1.15,2013-05-23 12:10:00,
2013-05-23 07:15:00,73.9,69.4,29.81,SSE,148,5.0,10.0,86,0.00,,,0.00,Wunderground v.1.15,2013-05-23 12:15:00,
2013-05-23 07:17:00,73.9,69.4,29.81,SE,144,5.0,10.0,86,0.00,,,0.00,Wunderground v.1.15,2013-05-23 12:17:00,
2013-05-23 07:21:00,74.0,69.5,29.81,SE,130,6.0,7.0,86,0.00,,,0.00,Wunderground v.1.15,2013-05-23 12:21:00,
2013-05-23 07:22:00,74.0,69.5,29.81,ESE,123,6.0,7.0,86,0.00,,,0.00,Wunderground v.1.15,2013-05-23 12:22:00,
2013-05-23 07:27:00,74.2,69.7,29.81,SE,124,5.0,7.0,86,0.00,,,0.00,Wunderground v.1.15,2013-05-23 12:27:00,
2013-05-23 07:30:00,74.2,69.7,29.81,ESE,117,5.0,8.0,86,0.00,,,0.00,Wunderground v.1.15,2013-05-23 12:30:00,
2013-05-23 07:33:00,74.2,69.7,29.82,SSE,158,5.0,8.0,86,0.00,,,0.00,Wunderground v.1.15,2013-05-23 12:33:00,
2013-05-23 07:34:00,74.2,69.7,29.82,SSE,151,4.0,8.0,86,0.00,,,0.00,Wunderground v.1.15,2013-05-23 12:34:00,
2013-05-23 07:35:00,74.2,69.7,29.82,SE,134,4.0,8.0,86,0.00,,,0.00,Wunderground v.1.15,2013-05-23 12:35:00,
2013-05-23 07:39:00,74.2,69.7,29.82,SE,133,4.0,5.0,86,0.00,,,0.00,Wunderground v.1.15,2013-05-23 12:39:00,
2013-05-23 07:41:00,74.2,69.7,29.82,SE,130,5.0,5.0,86,0.00,,,0.00,Wunderground v.1.15,2013-05-23 12:41:00,
2013-05-23 07:42:00,74.2,69.7,29.82,ESE,121,4.0,5.0,86,0.00,,,0.00,Wunderground v.1.15,2013-05-23 12:42:00,
2013-05-23 07:43:00,74.2,69.7,29.82,SE,140,4.0,6.0,86,0.00,,,0.00,Wunderground v.1.15,2013-05-23 12:43:00,
2013-05-23 07:46:00,74.2,69.4,29.82,SE,124,5.0,8.0,85,0.00,,,0.00,Wunderground v.1.15,2013-05-23 12:46:00,
2013-05-23 07:49:00,74.4,69.6,29.83,SE,130,5.0,5.0,85,0.00,,,0.00,Wunderground v.1.15,2013-05-23 12:49:00,
2013-05-23 07:51:00,74.4,69.6,29.83,ESE,109,5.0,6.0,85,0.00,,,0.00,Wunderground v.1.15,2013-05-23 12:51:00,
2013-05-23 07:52:00,74.4,69.6,29.83,SE,133,5.0,9.0,85,0.00,,,0.00,Wunderground v.1.15,2013-05-23 12:52:00,
2013-05-23 07:55:00,74.4,69.6,29.83,ESE,107,6.0,9.0,85,0.00,,,0.00,Wunderground v.1.15,2013-05-23 12:55:00,
2013-05-23 07:56:00,74.4,69.6,29.83,SE,127,5.0,9.0,85,0.00,,,0.00,Wunderground v.1.15,2013-05-23 12:56:00,
2013-05-23 08:00:00,74.6,69.8,29.83,ESE,119,5.0,6.0,85,0.00,,,0.00,Wunderground v.1.15,2013-05-23 13:00:00,
2013-05-23 08:03:00,74.6,69.4,29.83,ESE,116,5.0,6.0,84,0.00,,,0.00,Wunderground v.1.15,2013-05-23 13:03:00,
2013-05-23 08:04:00,74.6,69.4,29.83,SE,140,5.0,6.0,84,0.00,,,0.00,Wunderground v.1.15,2013-05-23 13:04:00,
2013-05-23 08:05:00,74.6,69.4,29.83,SE,131,5.0,7.0,84,0.00,,,0.00,Wunderground v.1.15,2013-05-23 13:05:00,
2013-05-23 08:07:00,74.6,69.4,29.83,SE,136,5.0,7.0,84,0.00,,,0.00,Wunderground v.1.15,2013-05-23 13:07:00,
2013-05-23 08:09:00,74.7,69.5,29.83,SE,140,5.0,5.0,84,0.00,,,0.00,Wunderground v.1.15,2013-05-23 13:09:00,
2013-05-23 08:11:00,74.7,69.5,29.83,SE,143,5.0,5.0,84,0.00,,,0.00,Wunderground v.1.15,2013-05-23 13:11:00,
2013-05-23 08:13:00,74.7,69.5,29.83,SE,140,4.0,7.0,84,0.00,,,0.00,Wunderground v.1.15,2013-05-23 13:13:00,
2013-05-23 08:14:00,74.7,69.5,29.83,SE,140,4.0,7.0,84,0.00,,,0.00,Wunderground v.1.15,2013-05-23 13:14:00,
2013-05-23 08:17:00,74.7,69.5,29.84,South,169,4.0,7.0,84,0.00,,,0.00,Wunderground v.1.15,2013-05-23 13:17:00,
2013-05-23 08:18:00,74.7,69.5,29.84,SSE,151,4.0,4.0,84,0.00,,,0.00,Wunderground v.1.15,2013-05-23 13:18:00,
2013-05-23 08:20:00,74.7,69.5,29.84,SSE,154,4.0,4.0,84,0.00,,,0.00,Wunderground v.1.15,2013-05-23 13:20:00,
2013-05-23 08:22:00,74.9,69.7,29.84,South,175,4.0,7.0,84,0.00,,,0.00,Wunderground v.1.15,2013-05-23 13:22:00,
2013-05-23 08:25:00,74.9,69.7,29.84,SE,140,4.0,7.0,84,0.00,,,0.00,Wunderground v.1.15,2013-05-23 13:25:00,
2013-05-23 08:29:00,74.9,69.4,29.84,SE,140,4.0,5.0,83,0.00,,,0.00,Wunderground v.1.15,2013-05-23 13:29:00,
2013-05-23 08:30:00,74.9,69.4,29.84,SSE,158,5.0,5.0,83,0.00,,,0.00,Wunderground v.1.15,2013-05-23 13:30:00,
2013-05-23 08:31:00,74.9,69.4,29.84,SSE,155,4.0,5.0,83,0.00,,,0.00,Wunderground v.1.15,2013-05-23 13:31:00,
2013-05-23 08:33:00,74.9,69.4,29.84,SE,133,4.0,5.0,83,0.00,,,0.00,Wunderground v.1.15,2013-05-23 13:33:00,
2013-05-23 08:34:00,74.9,69.4,29.84,SE,128,5.0,6.0,83,0.00,,,0.00,Wunderground v.1.15,2013-05-23 13:34:00,
2013-05-23 08:36:00,74.9,69.4,29.84,SE,138,5.0,7.0,83,0.00,,,0.00,Wunderground v.1.15,2013-05-23 13:36:00,
2013-05-23 08:39:00,74.9,69.0,29.84,SE,136,5.0,6.0,82,0.00,,,0.00,Wunderground v.1.15,2013-05-23 13:39:00,
2013-05-23 08:40:00,75.1,69.2,29.84,SSE,148,6.0,7.0,82,0.00,,,0.00,Wunderground v.1.15,2013-05-23 13:40:00,
2013-05-23 08:41:00,75.1,69.2,29.84,SSE,150,6.0,7.0,82,0.00,,,0.00,Wunderground v.1.15,2013-05-23 13:41:00,
2013-05-23 08:44:00,75.1,69.2,29.84,SE,138,6.0,7.0,82,0.00,,,0.00,Wunderground v.1.15,2013-05-23 13:44:00,
2013-05-23 08:46:00,75.3,69.4,29.85,SE,136,6.0,7.0,82,0.00,,,0.00,Wunderground v.1.15,2013-05-23 13:46:00,
2013-05-23 08:50:00,75.3,69.4,29.85,SSE,162,5.0,6.0,82,0.00,,,0.00,Wunderground v.1.15,2013-05-23 13:50:00,
2013-05-23 08:54:00,75.4,69.5,29.85,SSE,160,3.0,6.0,82,0.00,,,0.00,Wunderground v.1.15,2013-05-23 13:54:00,
2013-05-23 08:55:00,75.4,69.5,29.85,ESE,123,3.0,6.0,82,0.00,,,0.00,Wunderground v.1.15,2013-05-23 13:55:00,
2013-05-23 08:59:00,75.4,69.5,29.85,ESE,110,3.0,4.0,82,0.00,,,0.00,Wunderground v.1.15,2013-05-23 13:59:00,
2013-05-23 09:02:00,75.4,69.5,29.86,South,178,3.0,6.0,82,0.00,,,0.00,Wunderground v.1.15,2013-05-23 14:02:00,
2013-05-23 09:03:00,75.4,69.5,29.86,South,179,4.0,6.0,82,0.00,,,0.00,Wunderground v.1.15,2013-05-23 14:03:00,
2013-05-23 09:06:00,75.4,69.5,29.86,SE,130,4.0,7.0,82,0.00,,,0.00,Wunderground v.1.15,2013-05-23 14:06:00,
2013-05-23 09:08:00,75.6,69.7,29.86,SE,134,4.0,4.0,82,0.00,,,0.00,Wunderground v.1.15,2013-05-23 14:08:00,
2013-05-23 09:09:00,75.6,69.7,29.86,SE,145,4.0,6.0,82,0.00,,,0.00,Wunderground v.1.15,2013-05-23 14:09:00,
2013-05-23 09:10:00,75.6,69.7,29.86,SSE,150,4.0,6.0,82,0.00,,,0.00,Wunderground v.1.15,2013-05-23 14:10:00,
2013-05-23 09:13:00,75.6,69.7,29.86,SSE,152,4.0,6.0,82,0.00,,,0.00,Wunderground v.1.15,2013-05-23 14:13:00,
2013-05-23 09:14:00,75.6,69.7,29.86,SE,140,4.0,6.0,82,0.00,,,0.00,Wunderground v.1.15,2013-05-23 14:14:00,
2013-05-23 09:19:00,75.6,70.1,29.86,SSE,147,5.0,5.0,83,0.00,,,0.00,Wunderground v.1.15,2013-05-23 14:19:00,
2013-05-23 09:20:00,75.6,69.7,29.86,ESE,123,5.0,6.0,82,0.00,,,0.00,Wunderground v.1.15,2013-05-23 14:20:00,
2013-05-23 09:21:00,75.6,69.7,29.86,SE,124,5.0,6.0,82,0.00,,,0.00,Wunderground v.1.15,2013-05-23 14:21:00,
2013-05-23 09:22:00,75.6,69.7,29.86,SE,130,5.0,6.0,82,0.00,,,0.00,Wunderground v.1.15,2013-05-23 14:22:00,
2013-05-23 09:25:00,75.6,69.7,29.86,ESE,113,5.0,6.0,82,0.00,,,0.00,Wunderground v.1.15,2013-05-23 14:25:00,
2013-05-23 09:26:00,75.6,69.7,29.86,SE,126,5.0,8.0,82,0.00,,,0.00,Wunderground v.1.15,2013-05-23 14:26:00,
2013-05-23 09:28:00,75.6,69.7,29.86,SE,144,5.0,5.0,82,0.00,,,0.00,Wunderground v.1.15,2013-05-23 14:28:00,
2013-05-23 09:30:00,75.6,69.7,29.86,SE,127,5.0,8.0,82,0.00,,,0.00,Wunderground v.1.15,2013-05-23 14:30:00,
2013-05-23 09:31:00,75.6,69.7,29.86,SE,130,5.0,11.0,82,0.00,,,0.00,Wunderground v.1.15,2013-05-23 14:31:00,
2013-05-23 09:32:00,75.6,69.7,29.86,ESE,123,6.0,11.0,82,0.00,,,0.00,Wunderground v.1.15,2013-05-23 14:32:00,
2013-05-23 09:34:00,75.6,69.7,29.86,SE,136,5.0,11.0,82,0.00,,,0.00,Wunderground v.1.15,2013-05-23 14:34:00,
2013-05-23 09:38:00,75.8,69.9,29.86,SSE,148,5.0,5.0,82,0.00,,,0.00,Wunderground v.1.15,2013-05-23 14:38:00,
2013-05-23 09:39:00,75.8,69.9,29.86,SSE,164,5.0,5.0,82,0.00,,,0.00,Wunderground v.1.15,2013-05-23 14:39:00,
2013-05-23 09:40:00,75.8,69.9,29.86,SE,144,5.0,5.0,82,0.00,,,0.00,Wunderground v.1.15,2013-05-23 14:40:00,
2013-05-23 09:44:00,76.0,69.7,29.86,South,182,5.0,10.0,81,0.00,,,0.00,Wunderground v.1.15,2013-05-23 14:44:00,
2013-05-23 09:45:00,76.0,69.7,29.86,SSE,164,5.0,10.0,81,0.00,,,0.00,Wunderground v.1.15,2013-05-23 14:45:00,
2013-05-23 09:49:00,76.0,69.7,29.86,SSE,150,4.0,4.0,81,0.00,,,0.00,Wunderground v.1.15,2013-05-23 14:49:00,
2013-05-23 09:52:00,76.3,69.7,29.86,South,175,3.0,7.0,80,0.00,,,0.00,Wunderground v.1.15,2013-05-23 14:52:00,
2013-05-23 09:53:00,76.3,69.7,29.86,SE,137,3.0,8.0,80,0.00,,,0.00,Wunderground v.1.15,2013-05-23 14:53:00,
2013-05-23 09:55:00,76.3,69.7,29.86,SE,136,3.0,8.0,80,0.00,,,0.00,Wunderground v.1.15,2013-05-23 14:55:00,
2013-05-23 09:58:00,76.5,69.5,29.86,SE,138,3.0,6.0,79,0.00,,,0.00,Wunderground v.1.15,2013-05-23 14:58:00,
2013-05-23 10:00:00,76.5,69.5,29.86,SE,141,3.0,6.0,79,0.00,,,0.00,Wunderground v.1.15,2013-05-23 15:00:00,
2013-05-23 10:01:00,76.5,69.5,29.86,ESE,123,4.0,6.0,79,0.00,,,0.00,Wunderground v.1.15,2013-05-23 15:01:00,
2013-05-23 10:02:00,76.5,69.5,29.86,SE,127,4.0,6.0,79,0.00,,,0.00,Wunderground v.1.15,2013-05-23 15:02:00,
2013-05-23 10:04:00,76.7,69.7,29.86,SE,144,4.0,8.0,79,0.00,,,0.00,Wunderground v.1.15,2013-05-23 15:04:00,
2013-05-23 10:08:00,76.8,69.8,29.86,SE,141,5.0,6.0,79,0.00,,,0.00,Wunderground v.1.15,2013-05-23 15:08:00,
2013-05-23 10:10:00,76.8,69.8,29.86,South,181,5.0,6.0,79,0.00,,,0.00,Wunderground v.1.15,2013-05-23 15:10:00,
2013-05-23 10:12:00,77.0,69.6,29.86,SE,127,6.0,11.0,78,0.00,,,0.00,Wunderground v.1.15,2013-05-23 15:12:00,
2013-05-23 10:13:00,77.0,69.6,29.86,SSE,157,6.0,11.0,78,0.00,,,0.00,Wunderground v.1.15,2013-05-23 15:13:00,
2013-05-23 10:15:00,77.2,69.8,29.86,SE,128,7.0,11.0,78,0.00,,,0.00,Wunderground v.1.15,2013-05-23 15:15:00,
2013-05-23 10:16:00,77.2,69.8,29.86,ESE,109,7.0,11.0,78,0.00,,,0.00,Wunderground v.1.15,2013-05-23 15:16:00,
2013-05-23 10:18:00,77.4,69.6,29.86,SSE,152,7.0,7.0,77,0.00,,,0.00,Wunderground v.1.15,2013-05-23 15:18:00,
2013-05-23 10:22:00,77.7,69.9,29.86,South,178,6.0,9.0,77,0.00,,,0.00,Wunderground v.1.15,2013-05-23 15:22:00,
2013-05-23 10:23:00,77.7,69.9,29.86,SE,134,6.0,9.0,77,0.00,,,0.00,Wunderground v.1.15,2013-05-23 15:23:00,
2013-05-23 10:24:00,77.7,69.5,29.86,SE,143,7.0,9.0,76,0.00,,,0.00,Wunderground v.1.15,2013-05-23 15:24:00,
2013-05-23 10:26:00,77.7,69.5,29.86,SSE,150,6.0,9.0,76,0.00,,,0.00,Wunderground v.1.15,2013-05-23 15:26:00,
2013-05-23 10:28:00,78.1,69.9,29.86,South,179,5.0,11.0,76,0.00,,,0.00,Wunderground v.1.15,2013-05-23 15:28:00,
2013-05-23 10:29:00,78.1,69.5,29.86,South,185,6.0,11.0,75,0.00,,,0.00,Wunderground v.1.15,2013-05-23 15:29:00,
2013-05-23 10:31:00,78.1,69.9,29.86,ESE,121,6.0,12.0,76,0.00,,,0.00,Wunderground v.1.15,2013-05-23 15:31:00,
2013-05-23 10:32:00,78.3,69.7,29.86,SE,130,6.0,12.0,75,0.00,,,0.00,Wunderground v.1.15,2013-05-23 15:32:00,
2013-05-23 10:34:00,78.3,69.7,29.86,SE,144,6.0,12.0,75,0.00,,,0.00,Wunderground v.1.15,2013-05-23 15:34:00,
2013-05-23 10:38:00,78.6,70.0,29.86,SSE,161,7.0,7.0,75,0.00,,,0.00,Wunderground v.1.15,2013-05-23 15:38:00,
2013-05-23 10:40:00,78.5,69.5,29.86,SSW,193,7.0,10.0,74,0.00,,,0.00,Wunderground v.1.15,2013-05-23 15:40:00,
2013-05-23 10:42:00,78.5,69.9,29.86,SSE,147,6.0,10.0,75,0.00,,,0.00,Wunderground v.1.15,2013-05-23 15:42:00,
2013-05-23 10:45:00,78.3,69.7,29.86,SSE,152,6.0,10.0,75,0.00,,,0.00,Wunderground v.1.15,2013-05-23 15:45:00,
2013-05-23 10:46:00,78.3,69.7,29.86,SSE,151,6.0,10.0,75,0.00,,,0.00,Wunderground v.1.15,2013-05-23 15:46:00,
2013-05-23 10:48:00,78.3,69.7,29.86,SE,145,7.0,7.0,75,0.00,,,0.00,Wunderground v.1.15,2013-05-23 15:48:00,
2013-05-23 10:49:00,78.1,69.5,29.86,SSE,147,7.0,13.0,75,0.00,,,0.00,Wunderground v.1.15,2013-05-23 15:49:00,
2013-05-23 10:50:00,78.1,69.5,29.86,SSE,168,7.0,13.0,75,0.00,,,0.00,Wunderground v.1.15,2013-05-23 15:50:00,
2013-05-23 10:52:00,78.1,69.5,29.86,SSE,147,7.0,13.0,75,0.00,,,0.00,Wunderground v.1.15,2013-05-23 15:52:00,
2013-05-23 10:54:00,78.1,69.5,29.86,SE,134,7.0,13.0,75,0.00,,,0.00,Wunderground v.1.15,2013-05-23 15:54:00,
2013-05-23 10:56:00,78.1,69.5,29.86,South,186,7.0,13.0,75,0.00,,,0.00,Wunderground v.1.15,2013-05-23 15:56:00,
2013-05-23 10:58:00,78.1,69.5,29.86,SSE,165,7.0,7.0,75,0.00,,,0.00,Wunderground v.1.15,2013-05-23 15:58:00,
2013-05-23 11:01:00,78.1,69.9,29.86,SSE,158,6.0,7.0,76,0.00,,,0.00,Wunderground v.1.15,2013-05-23 16:01:00,
2013-05-23 11:02:00,78.1,69.9,29.86,SSE,147,5.0,7.0,76,0.00,,,0.00,Wunderground v.1.15,2013-05-23 16:02:00,
2013-05-23 11:03:00,78.3,69.7,29.86,South,171,5.0,7.0,75,0.00,,,0.00,Wunderground v.1.15,2013-05-23 16:03:00,
2013-05-23 11:06:00,78.6,70.0,29.86,South,171,5.0,7.0,75,0.00,,,0.00,Wunderground v.1.15,2013-05-23 16:06:00,
2013-05-23 11:08:00,79.2,70.2,29.86,South,172,4.0,4.0,74,0.00,,,0.00,Wunderground v.1.15,2013-05-23 16:08:00,
2013-05-23 11:10:00,79.6,70.2,29.86,South,175,4.0,5.0,73,0.00,,,0.00,Wunderground v.1.15,2013-05-23 16:10:00,
2013-05-23 11:12:00,79.8,70.0,29.86,ESE,123,5.0,10.0,72,0.00,,,0.00,Wunderground v.1.15,2013-05-23 16:12:00,
2013-05-23 11:13:00,79.8,70.0,29.86,ESE,120,5.0,10.0,72,0.00,,,0.00,Wunderground v.1.15,2013-05-23 16:13:00,
2013-05-23 11:14:00,79.8,70.0,29.86,SE,137,6.0,10.0,72,0.00,,,0.00,Wunderground v.1.15,2013-05-23 16:14:00,
2013-05-23 11:16:00,79.6,69.8,29.86,SSE,167,6.0,11.0,72,0.00,,,0.00,Wunderground v.1.15,2013-05-23 16:16:00,
2013-05-23 11:18:00,79.6,69.8,29.86,SE,143,7.0,7.0,72,0.00,,,0.00,Wunderground v.1.15,2013-05-23 16:18:00,
2013-05-23 11:19:00,79.6,69.8,29.86,South,182,7.0,9.0,72,0.00,,,0.00,Wunderground v.1.15,2013-05-23 16:19:00,
2013-05-23 11:20:00,79.8,70.0,29.86,SE,145,7.0,9.0,72,0.00,,,0.00,Wunderground v.1.15,2013-05-23 16:20:00,
2013-05-23 11:23:00,79.9,70.1,29.86,SE,128,6.0,9.0,72,0.00,,,0.00,Wunderground v.1.15,2013-05-23 16:23:00,
2013-05-23 11:24:00,80.1,70.3,29.86,SE,137,6.0,9.0,72,0.00,,,0.00,Wunderground v.1.15,2013-05-23 16:24:00,
2013-05-23 11:25:00,80.1,69.8,29.86,ESE,123,6.0,9.0,71,0.00,,,0.00,Wunderground v.1.15,2013-05-23 16:25:00,
2013-05-23 11:28:00,80.3,70.0,29.86,SSE,164,6.0,7.0,71,0.00,,,0.00,Wunderground v.1.15,2013-05-23 16:28:00,
2013-05-23 11:29:00,80.1,69.4,29.86,SE,131,6.0,7.0,70,0.00,,,0.00,Wunderground v.1.15,2013-05-23 16:29:00,
2013-05-23 11:30:00,80.1,69.4,29.86,ESE,121,6.0,12.0,70,0.00,,,0.00,Wunderground v.1.15,2013-05-23 16:30:00,
2013-05-23 11:34:00,80.1,69.4,29.86,SE,130,7.0,12.0,70,0.00,,,0.00,Wunderground v.1.15,2013-05-23 16:34:00,
2013-05-23 11:35:00,80.1,69.4,29.86,SSE,154,6.0,12.0,70,0.00,,,0.00,Wunderground v.1.15,2013-05-23 16:35:00,
2013-05-23 11:38:00,79.9,69.7,29.86,SE,130,6.0,6.0,71,0.00,,,0.00,Wunderground v.1.15,2013-05-23 16:38:00,
2013-05-23 11:39:00,79.8,69.6,29.86,South,169,6.0,7.0,71,0.00,,,0.00,Wunderground v.1.15,2013-05-23 16:39:00,
2013-05-23 11:42:00,79.8,70.0,29.86,South,178,6.0,7.0,72,0.00,,,0.00,Wunderground v.1.15,2013-05-23 16:42:00,
2013-05-23 11:45:00,79.8,70.0,29.86,South,176,5.0,7.0,72,0.00,,,0.00,Wunderground v.1.15,2013-05-23 16:45:00,
2013-05-23 11:49:00,79.8,69.6,29.86,SSW,196,5.0,7.0,71,0.00,,,0.00,Wunderground v.1.15,2013-05-23 16:49:00,
2013-05-23 11:51:00,79.8,69.6,29.86,SSE,152,5.0,7.0,71,0.00,,,0.00,Wunderground v.1.15,2013-05-23 16:51:00,
2013-05-23 11:53:00,79.9,69.7,29.86,South,174,4.0,7.0,71,0.00,,,0.00,Wunderground v.1.15,2013-05-23 16:53:00,
2013-05-23 11:55:00,79.9,69.7,29.86,ESE,112,4.0,7.0,71,0.00,,,0.00,Wunderground v.1.15,2013-05-23 16:55:00,
2013-05-23 11:57:00,79.9,69.2,29.86,SSE,151,5.0,7.0,70,0.00,,,0.00,Wunderground v.1.15,2013-05-23 16:57:00,
2013-05-23 12:00:00,79.9,69.2,29.86,SE,138,5.0,7.0,70,0.00,,,0.00,Wunderground v.1.15,2013-05-23 17:00:00,
2013-05-23 12:01:00,79.9,69.2,29.86,SE,131,5.0,12.0,70,0.00,,,0.00,Wunderground v.1.15,2013-05-23 17:01:00,
2013-05-23 12:03:00,79.9,69.2,29.86,SE,133,6.0,12.0,70,0.00,,,0.00,Wunderground v.1.15,2013-05-23 17:03:00,
2013-05-23 12:04:00,79.9,69.2,29.86,SE,134,6.0,12.0,70,0.00,,,0.00,Wunderground v.1.15,2013-05-23 17:04:00,
2013-05-23 12:05:00,79.9,69.7,29.86,SSE,150,6.0,12.0,71,0.00,,,0.00,Wunderground v.1.15,2013-05-23 17:05:00,
2013-05-23 12:09:00,80.3,70.0,29.86,SE,138,6.0,7.0,71,0.00,,,0.00,Wunderground v.1.15,2013-05-23 17:09:00,
2013-05-23 12:12:00,80.7,70.0,29.86,SE,134,5.0,8.0,70,0.00,,,0.00,Wunderground v.1.15,2013-05-23 17:12:00,
2013-05-23 12:13:00,80.7,70.0,29.86,South,188,5.0,8.0,70,0.00,,,0.00,Wunderground v.1.15,2013-05-23 17:13:00,
2013-05-23 12:14:00,80.9,70.2,29.86,SSE,150,5.0,9.0,70,0.00,,,0.00,Wunderground v.1.15,2013-05-23 17:14:00,
2013-05-23 12:16:00,80.7,69.6,29.86,ESE,112,6.0,10.0,69,0.00,,,0.00,Wunderground v.1.15,2013-05-23 17:16:00,
2013-05-23 12:19:00,80.7,69.6,29.86,SSE,152,6.0,6.0,69,0.00,,,0.00,Wunderground v.1.15,2013-05-23 17:19:00,
2013-05-23 12:20:00,80.7,69.6,29.86,SSE,150,6.0,6.0,69,0.00,,,0.00,Wunderground v.1.15,2013-05-23 17:20:00,
2013-05-23 12:23:00,80.9,69.8,29.86,ESE,123,6.0,6.0,69,0.00,,,0.00,Wunderground v.1.15,2013-05-23 17:23:00,
2013-05-23 12:24:00,81.1,70.0,29.86,ESE,121,6.0,6.0,69,0.00,,,0.00,Wunderground v.1.15,2013-05-23 17:24:00,
2013-05-23 12:27:00,81.1,70.0,29.86,SSE,151,6.0,6.0,69,0.00,,,0.00,Wunderground v.1.15,2013-05-23 17:27:00,
2013-05-23 12:29:00,80.9,70.2,29.86,SSW,195,5.0,10.0,70,0.00,,,0.00,Wunderground v.1.15,2013-05-23 17:29:00,
2013-05-23 12:30:00,80.9,70.2,29.86,SSE,165,5.0,10.0,70,0.00,,,0.00,Wunderground v.1.15,2013-05-23 17:30:00,
2013-05-23 12:32:00,80.9,70.2,29.86,SSE,165,5.0,10.0,70,0.00,,,0.00,Wunderground v.1.15,2013-05-23 17:32:00,
2013-05-23 12:34:00,80.7,70.0,29.86,South,175,5.0,10.0,70,0.00,,,0.00,Wunderground v.1.15,2013-05-23 17:34:00,
2013-05-23 12:35:00,80.7,70.0,29.86,SSW,202,5.0,10.0,70,0.00,,,0.00,Wunderground v.1.15,2013-05-23 17:35:00,
2013-05-23 12:36:00,80.7,70.0,29.86,SSW,192,5.0,10.0,70,0.00,,,0.00,Wunderground v.1.15,2013-05-23 17:36:00,
2013-05-23 12:37:00,80.9,70.6,29.86,SSW,193,4.0,10.0,71,0.00,,,0.00,Wunderground v.1.15,2013-05-23 17:37:00,
2013-05-23 12:41:00,81.1,70.8,29.86,SSW,196,4.0,5.0,71,0.00,,,0.00,Wunderground v.1.15,2013-05-23 17:41:00,
2013-05-23 12:42:00,81.2,70.5,29.86,SW,230,4.0,5.0,70,0.00,,,0.00,Wunderground v.1.15,2013-05-23 17:42:00,
2013-05-23 12:43:00,81.2,70.5,29.86,South,169,4.0,5.0,70,0.00,,,0.00,Wunderground v.1.15,2013-05-23 17:43:00,
2013-05-23 12:44:00,81.2,70.5,29.86,SSW,192,4.0,5.0,70,0.00,,,0.00,Wunderground v.1.15,2013-05-23 17:44:00,
2013-05-23 12:47:00,81.4,70.2,29.86,SE,145,3.0,5.0,69,0.00,,,0.00,Wunderground v.1.15,2013-05-23 17:47:00,
2013-05-23 12:50:00,81.4,70.2,29.86,SE,131,3.0,3.0,69,0.00,,,0.00,Wunderground v.1.15,2013-05-23 17:50:00,
2013-05-23 12:51:00,81.6,70.4,29.86,SE,143,3.0,3.0,69,0.00,,,0.00,Wunderground v.1.15,2013-05-23 17:51:00,
2013-05-23 12:56:00,81.8,70.2,29.86,SSE,162,2.0,5.0,68,0.00,,,0.00,Wunderground v.1.15,2013-05-23 17:56:00,
2013-05-23 12:59:00,82.4,71.2,29.86,SE,126,3.0,10.0,69,0.00,,,0.00,Wunderground v.1.15,2013-05-23 17:59:00,
2013-05-23 13:01:00,82.6,71.0,29.85,ESE,120,3.0,10.0,68,0.00,,,0.00,Wunderground v.1.15,2013-05-23 18:01:00,
2013-05-23 13:03:00,82.6,70.5,29.85,SE,128,4.0,10.0,67,0.00,,,0.00,Wunderground v.1.15,2013-05-23 18:03:00,
2013-05-23 13:04:00,82.6,70.5,29.85,SE,124,4.0,10.0,67,0.00,,,0.00,Wunderground v.1.15,2013-05-23 18:04:00,
2013-05-23 13:05:00,82.8,70.3,29.85,South,185,4.0,10.0,66,0.00,,,0.00,Wunderground v.1.15,2013-05-23 18:05:00,
2013-05-23 13:07:00,82.8,70.3,29.85,South,185,4.0,10.0,66,0.00,,,0.00,Wunderground v.1.15,2013-05-23 18:07:00,
2013-05-23 13:10:00,83.2,70.2,29.85,SE,124,4.0,5.0,65,0.00,,,0.00,Wunderground v.1.15,2013-05-23 18:10:00,
2013-05-23 13:11:00,83.4,70.4,29.85,SSW,192,4.0,5.0,65,0.00,,,0.00,Wunderground v.1.15,2013-05-23 18:11:00,
2013-05-23 13:14:00,83.6,70.6,29.85,SE,140,2.0,5.0,65,0.00,,,0.00,Wunderground v.1.15,2013-05-23 18:14:00,
2013-05-23 13:16:00,83.8,70.3,29.85,ESE,120,2.0,8.0,64,0.00,,,0.00,Wunderground v.1.15,2013-05-23 18:16:00,
2013-05-23 13:17:00,83.8,69.4,29.84,ESE,104,2.0,8.0,62,0.00,,,0.00,Wunderground v.1.15,2013-05-23 18:17:00,
2013-05-23 13:19:00,83.8,69.4,29.84,SE,140,3.0,3.0,62,0.00,,,0.00,Wunderground v.1.15,2013-05-23 18:19:00,
2013-05-23 13:20:00,84.0,69.6,29.84,ESE,116,3.0,6.0,62,0.00,,,0.00,Wunderground v.1.15,2013-05-23 18:20:00,
2013-05-23 13:22:00,84.3,69.9,29.84,ESE,113,3.0,6.0,62,0.00,,,0.00,Wunderground v.1.15,2013-05-23 18:22:00,
2013-05-23 13:24:00,84.9,70.4,29.84,SE,143,4.0,8.0,62,0.00,,,0.00,Wunderground v.1.15,2013-05-23 18:24:00,
2013-05-23 13:25:00,84.9,69.5,29.84,SE,145,4.0,11.0,60,0.00,,,0.00,Wunderground v.1.15,2013-05-23 18:25:00,
2013-05-23 13:26:00,84.9,69.5,29.84,SE,136,5.0,11.0,60,0.00,,,0.00,Wunderground v.1.15,2013-05-23 18:26:00,
2013-05-23 13:29:00,84.1,68.7,29.84,SE,134,7.0,7.0,60,0.00,,,0.00,Wunderground v.1.15,2013-05-23 18:29:00,
2013-05-23 13:30:00,84.1,69.2,29.84,SE,126,7.0,7.0,61,0.00,,,0.00,Wunderground v.1.15,2013-05-23 18:30:00,
2013-05-23 13:33:00,84.0,69.1,29.84,SE,137,8.0,12.0,61,0.00,,,0.00,Wunderground v.1.15,2013-05-23 18:33:00,
2013-05-23 13:34:00,84.1,69.2,29.84,ESE,121,8.0,12.0,61,0.00,,,0.00,Wunderground v.1.15,2013-05-23 18:34:00,
2013-05-23 13:35:00,84.3,69.4,29.84,ESE,123,8.0,12.0,61,0.00,,,0.00,Wunderground v.1.15,2013-05-23 18:35:00,
2013-05-23 13:39:00,84.7,69.3,29.84,ESE,104,8.0,8.0,60,0.00,,,0.00,Wunderground v.1.15,2013-05-23 18:39:00,
2013-05-23 13:40:00,84.7,69.3,29.84,SE,136,8.0,8.0,60,0.00,,,0.00,Wunderground v.1.15,2013-05-23 18:40:00,
2013-05-23 13:41:00,84.7,69.8,29.84,SE,140,8.0,8.0,61,0.00,,,0.00,Wunderground v.1.15,2013-05-23 18:41:00,
2013-05-23 13:42:00,84.7,69.3,29.84,SE,138,7.0,8.0,60,0.00,,,0.00,Wunderground v.1.15,2013-05-23 18:42:00,
2013-05-23 13:45:00,84.5,69.1,29.84,SE,136,7.0,8.0,60,0.00,,,0.00,Wunderground v.1.15,2013-05-23 18:45:00,
2013-05-23 13:46:00,84.7,69.3,29.84,ESE,114,7.0,8.0,60,0.00,,,0.00,Wunderground v.1.15,2013-05-23 18:46:00,
2013-05-23 13:47:00,84.7,69.3,29.84,ESE,103,7.0,8.0,60,0.00,,,0.00,Wunderground v.1.15,2013-05-23 18:47:00,
2013-05-23 13:51:00,85.1,69.2,29.84,SSE,161,6.0,6.0,59,0.00,,,0.00,Wunderground v.1.15,2013-05-23 18:51:00,
2013-05-23 13:52:00,85.3,69.3,29.84,ESE,123,6.0,6.0,59,0.00,,,0.00,Wunderground v.1.15,2013-05-23 18:52:00,
2013-05-23 13:54:00,85.3,69.3,29.84,SE,130,6.0,11.0,59,0.00,,,0.00,Wunderground v.1.15,2013-05-23 18:54:00,
2013-05-23 13:57:00,85.5,69.0,29.84,SE,141,6.0,11.0,58,0.00,,,0.00,Wunderground v.1.15,2013-05-23 18:57:00,
2013-05-23 13:59:00,85.5,69.0,29.84,South,188,7.0,7.0,58,0.00,,,0.00,Wunderground v.1.15,2013-05-23 18:59:00,
2013-05-23 14:00:00,85.5,69.5,29.84,SE,124,7.0,8.0,59,0.00,,,0.00,Wunderground v.1.15,2013-05-23 19:00:00,
2013-05-23 14:01:00,85.7,69.2,29.83,SE,131,7.0,8.0,58,0.00,,,0.00,Wunderground v.1.15,2013-05-23 19:01:00,
2013-05-23 14:04:00,85.7,69.2,29.83,SSE,167,7.0,8.0,58,0.00,,,0.00,Wunderground v.1.15,2013-05-23 19:04:00,
2013-05-23 14:05:00,85.7,69.2,29.83,ESE,117,6.0,8.0,58,0.00,,,0.00,Wunderground v.1.15,2013-05-23 19:05:00,
2013-05-23 14:06:00,85.9,69.4,29.83,ESE,109,6.0,8.0,58,0.00,,,0.00,Wunderground v.1.15,2013-05-23 19:06:00,
2013-05-23 14:10:00,86.1,69.1,29.83,SE,130,6.0,10.0,57,0.00,,,0.00,Wunderground v.1.15,2013-05-23 19:10:00,
2013-05-23 14:11:00,86.1,69.1,29.83,SSE,148,6.0,10.0,57,0.00,,,0.00,Wunderground v.1.15,2013-05-23 19:11:00,
2013-05-23 14:12:00,86.3,69.3,29.83,SE,138,6.0,10.0,57,0.00,,,0.00,Wunderground v.1.15,2013-05-23 19:12:00,
2013-05-23 14:13:00,86.5,69.5,29.83,ESE,107,7.0,10.0,57,0.00,,,0.00,Wunderground v.1.15,2013-05-23 19:13:00,
2013-05-23 14:17:00,87.0,68.9,29.83,South,186,7.0,11.0,55,0.00,,,0.00,Wunderground v.1.15,2013-05-23 19:17:00,
2013-05-23 14:19:00,87.4,69.8,29.83,South,171,7.0,7.0,56,0.00,,,0.00,Wunderground v.1.15,2013-05-23 19:19:00,
2013-05-23 14:20:00,87.6,69.4,29.83,SE,141,6.0,7.0,55,0.00,,,0.00,Wunderground v.1.15,2013-05-23 19:20:00,
2013-05-23 14:21:00,87.6,69.4,29.83,ESE,123,6.0,8.0,55,0.00,,,0.00,Wunderground v.1.15,2013-05-23 19:21:00,
2013-05-23 14:26:00,87.6,69.4,29.83,SE,127,5.0,10.0,55,0.00,,,0.00,Wunderground v.1.15,2013-05-23 19:26:00,
2013-05-23 14:27:00,87.6,70.0,29.83,SE,145,5.0,10.0,56,0.00,,,0.00,Wunderground v.1.15,2013-05-23 19:27:00,
2013-05-23 14:32:00,87.4,69.3,29.83,ESE,123,6.0,11.0,55,0.00,,,0.00,Wunderground v.1.15,2013-05-23 19:32:00,
2013-05-23 14:33:00,87.4,68.7,29.83,ESE,114,6.0,11.0,54,0.00,,,0.00,Wunderground v.1.15,2013-05-23 19:33:00,
2013-05-23 14:35:00,87.4,69.3,29.83,South,174,6.0,11.0,55,0.00,,,0.00,Wunderground v.1.15,2013-05-23 19:35:00,
2013-05-23 14:36:00,87.6,68.4,29.83,South,182,6.0,11.0,53,0.00,,,0.00,Wunderground v.1.15,2013-05-23 19:36:00,
2013-05-23 14:40:00,88.2,68.9,29.83,SE,136,6.0,11.0,53,0.00,,,0.00,Wunderground v.1.15,2013-05-23 19:40:00,
2013-05-23 14:41:00,88.4,69.1,29.83,SE,124,6.0,11.0,53,0.00,,,0.00,Wunderground v.1.15,2013-05-23 19:41:00,
2013-05-23 14:42:00,88.2,68.4,29.83,SE,127,6.0,11.0,52,0.00,,,0.00,Wunderground v.1.15,2013-05-23 19:42:00,
2013-05-23 14:46:00,88.0,68.7,29.83,SE,136,7.0,11.0,53,0.00,,,0.00,Wunderground v.1.15,2013-05-23 19:46:00,
2013-05-23 14:47:00,88.0,68.7,29.82,SE,127,7.0,11.0,53,0.00,,,0.00,Wunderground v.1.15,2013-05-23 19:47:00,
2013-05-23 14:49:00,87.8,68.5,29.82,ENE,76,7.0,7.0,53,0.00,,,0.00,Wunderground v.1.15,2013-05-23 19:49:00,
2013-05-23 14:50:00,87.8,68.5,29.82,ESE,121,8.0,14.0,53,0.00,,,0.00,Wunderground v.1.15,2013-05-23 19:50:00,
2013-05-23 14:51:00,87.8,68.5,29.82,SSE,150,8.0,14.0,53,0.00,,,0.00,Wunderground v.1.15,2013-05-23 19:51:00,
2013-05-23 14:52:00,87.8,68.0,29.82,SE,131,9.0,14.0,52,0.00,,,0.00,Wunderground v.1.15,2013-05-23 19:52:00,
2013-05-23 14:54:00,88.0,68.7,29.82,SE,134,8.0,14.0,53,0.00,,,0.00,Wunderground v.1.15,2013-05-23 19:54:00,
2013-05-23 14:56:00,87.8,68.5,29.82,SE,136,9.0,14.0,53,0.00,,,0.00,Wunderground v.1.15,2013-05-23 19:56:00,
2013-05-23 14:57:00,88.0,68.7,29.82,SE,143,8.0,14.0,53,0.00,,,0.00,Wunderground v.1.15,2013-05-23 19:57:00,
2013-05-23 14:59:00,88.2,68.4,29.82,ESE,120,8.0,11.0,52,0.00,,,0.00,Wunderground v.1.15,2013-05-23 19:59:00,
2013-05-23 15:00:00,88.0,68.2,29.82,SE,126,8.0,11.0,52,0.00,,,0.00,Wunderground v.1.15,2013-05-23 20:00:00,
2013-05-23 15:01:00,87.8,68.0,29.82,ESE,123,8.0,11.0,52,0.00,,,0.00,Wunderground v.1.15,2013-05-23 20:01:00,
2013-05-23 15:02:00,87.8,68.0,29.82,SE,133,7.0,11.0,52,0.00,,,0.00,Wunderground v.1.15,2013-05-23 20:02:00,
2013-05-23 15:04:00,87.8,68.0,29.82,SE,126,8.0,13.0,52,0.00,,,0.00,Wunderground v.1.15,2013-05-23 20:04:00,
2013-05-23 15:07:00,88.0,68.2,29.82,SSE,155,8.0,13.0,52,0.00,,,0.00,Wunderground v.1.15,2013-05-23 20:07:00,
2013-05-23 15:10:00,88.2,68.4,29.82,SE,130,6.0,13.0,52,0.00,,,0.00,Wunderground v.1.15,2013-05-23 20:10:00,
2013-05-23 15:14:00,87.8,68.0,29.82,ESE,106,7.0,13.0,52,0.00,,,0.00,Wunderground v.1.15,2013-05-23 20:14:00,
2013-05-23 15:16:00,87.8,68.5,29.82,ESE,119,7.0,13.0,53,0.00,,,0.00,Wunderground v.1.15,2013-05-23 20:16:00,
2013-05-23 15:17:00,87.8,68.5,29.82,ESE,116,8.0,13.0,53,0.00,,,0.00,Wunderground v.1.15,2013-05-23 20:17:00,
2013-05-23 15:22:00,88.2,68.9,29.82,ESE,117,7.0,9.0,53,0.00,,,0.00,Wunderground v.1.15,2013-05-23 20:22:00,
2013-05-23 15:24:00,88.4,68.5,29.82,SE,128,6.0,13.0,52,0.00,,,0.00,Wunderground v.1.15,2013-05-23 20:24:00,
2013-05-23 15:25:00,88.6,68.7,29.82,SE,128,6.0,14.0,52,0.00,,,0.00,Wunderground v.1.15,2013-05-23 20:25:00,
2013-05-23 15:27:00,88.4,68.0,29.82,SSE,150,6.0,14.0,51,0.00,,,0.00,Wunderground v.1.15,2013-05-23 20:27:00,
2013-05-23 15:29:00,88.4,68.5,29.82,South,181,6.0,10.0,52,0.00,,,0.00,Wunderground v.1.15,2013-05-23 20:29:00,
2013-05-23 15:30:00,88.4,68.5,29.82,SE,143,7.0,16.0,52,0.00,,,0.00,Wunderground v.1.15,2013-05-23 20:30:00,
2013-05-23 15:34:00,88.4,68.5,29.81,SE,126,7.0,16.0,52,0.00,,,0.00,Wunderground v.1.15,2013-05-23 20:34:00,
2013-05-23 15:35:00,88.4,68.5,29.81,SE,145,6.0,16.0,52,0.00,,,0.00,Wunderground v.1.15,2013-05-23 20:35:00,
2013-05-23 15:37:00,88.6,68.7,29.81,SSE,161,6.0,16.0,52,0.00,,,0.00,Wunderground v.1.15,2013-05-23 20:37:00,
2013-05-23 15:39:00,88.8,68.9,29.81,SE,128,7.0,8.0,52,0.00,,,0.00,Wunderground v.1.15,2013-05-23 20:39:00,
2013-05-23 15:40:00,88.8,68.9,29.81,SE,130,7.0,11.0,52,0.00,,,0.00,Wunderground v.1.15,2013-05-23 20:40:00,
2013-05-23 15:43:00,88.4,68.5,29.81,SE,124,6.0,11.0,52,0.00,,,0.00,Wunderground v.1.15,2013-05-23 20:43:00,
2013-05-23 15:45:00,88.4,68.5,29.81,SE,127,6.0,11.0,52,0.00,,,0.00,Wunderground v.1.15,2013-05-23 20:45:00,
2013-05-23 15:47:00,88.6,68.7,29.81,SSE,152,6.0,11.0,52,0.00,,,0.00,Wunderground v.1.15,2013-05-23 20:47:00,
2013-05-23 15:49:00,88.8,68.9,29.81,SE,140,5.0,5.0,52,0.00,,,0.00,Wunderground v.1.15,2013-05-23 20:49:00,
2013-05-23 15:51:00,89.0,68.5,29.81,SE,126,4.0,7.0,51,0.00,,,0.00,Wunderground v.1.15,2013-05-23 20:51:00,
2013-05-23 15:52:00,89.0,68.5,29.81,South,178,4.0,7.0,51,0.00,,,0.00,Wunderground v.1.15,2013-05-23 20:52:00,
2013-05-23 15:55:00,89.3,68.8,29.81,ESE,120,4.0,18.0,51,0.00,,,0.00,Wunderground v.1.15,2013-05-23 20:55:00,
2013-05-23 15:57:00,89.3,68.2,29.81,ESE,114,6.0,18.0,50,0.00,,,0.00,Wunderground v.1.15,2013-05-23 20:57:00,
2013-05-23 15:59:00,89.0,68.5,29.81,SE,128,7.0,10.0,51,0.00,,,0.00,Wunderground v.1.15,2013-05-23 20:59:00,
2013-05-23 16:01:00,89.0,68.5,29.80,ESE,112,7.0,10.0,51,0.00,,,0.00,Wunderground v.1.15,2013-05-23 21:01:00,
2013-05-23 16:02:00,89.0,68.5,29.80,ESE,110,7.0,10.0,51,0.00,,,0.00,Wunderground v.1.15,2013-05-23 21:02:00,
2013-05-23 16:05:00,89.3,68.8,29.80,ESE,110,7.0,11.0,51,0.00,,,0.00,Wunderground v.1.15,2013-05-23 21:05:00,
2013-05-23 16:09:00,89.0,67.9,29.80,SSE,147,6.0,6.0,50,0.00,,,0.00,Wunderground v.1.15,2013-05-23 21:09:00,
2013-05-23 16:10:00,89.0,67.9,29.80,SE,144,7.0,10.0,50,0.00,,,0.00,Wunderground v.1.15,2013-05-23 21:10:00,
2013-05-23 16:11:00,89.0,67.9,29.80,SSE,154,7.0,12.0,50,0.00,,,0.00,Wunderground v.1.15,2013-05-23 21:11:00,
2013-05-23 16:14:00,88.8,67.8,29.80,South,184,8.0,12.0,50,0.00,,,0.00,Wunderground v.1.15,2013-05-23 21:14:00,
2013-05-23 16:15:00,88.6,67.6,29.80,ESE,106,8.0,12.0,50,0.00,,,0.00,Wunderground v.1.15,2013-05-23 21:15:00,
2013-05-23 16:16:00,88.8,67.8,29.80,SE,130,8.0,13.0,50,0.00,,,0.00,Wunderground v.1.15,2013-05-23 21:16:00,
2013-05-23 16:20:00,89.0,67.9,29.80,SE,140,9.0,12.0,50,0.00,,,0.00,Wunderground v.1.15,2013-05-23 21:20:00,
2013-05-23 16:22:00,89.0,67.9,29.80,SE,124,9.0,13.0,50,0.00,,,0.00,Wunderground v.1.15,2013-05-23 21:22:00,
2013-05-23 16:23:00,89.3,67.6,29.80,ESE,114,9.0,13.0,49,0.00,,,0.00,Wunderground v.1.15,2013-05-23 21:23:00,
2013-05-23 16:29:00,89.0,67.9,29.80,SE,137,8.0,8.0,50,0.00,,,0.00,Wunderground v.1.15,2013-05-23 21:29:00,
2013-05-23 16:30:00,89.0,67.9,29.80,SE,140,8.0,8.0,50,0.00,,,0.00,Wunderground v.1.15,2013-05-23 21:30:00,
2013-05-23 16:31:00,89.0,68.5,29.80,SE,143,8.0,11.0,51,0.00,,,0.00,Wunderground v.1.15,2013-05-23 21:31:00,
2013-05-23 16:32:00,89.0,68.5,29.79,SE,130,8.0,11.0,51,0.00,,,0.00,Wunderground v.1.15,2013-05-23 21:32:00,
2013-05-23 16:36:00,89.5,68.4,29.79,East,85,8.0,11.0,50,0.00,,,0.00,Wunderground v.1.15,2013-05-23 21:36:00,
2013-05-23 16:39:00,89.5,67.2,29.79,South,182,8.0,8.0,48,0.00,,,0.00,Wunderground v.1.15,2013-05-23 21:39:00,
2013-05-23 16:41:00,89.5,67.2,29.79,SE,136,8.0,11.0,48,0.00,,,0.00,Wunderground v.1.15,2013-05-23 21:41:00,
2013-05-23 16:42:00,89.5,67.2,29.79,ESE,121,8.0,11.0,48,0.00,,,0.00,Wunderground v.1.15,2013-05-23 21:42:00,
2013-05-23 16:44:00,89.5,67.2,29.79,ESE,109,8.0,11.0,48,0.00,,,0.00,Wunderground v.1.15,2013-05-23 21:44:00,
2013-05-23 16:49:00,90.1,67.8,29.78,SSE,147,7.0,8.0,48,0.00,,,0.00,Wunderground v.1.15,2013-05-23 21:49:00,
2013-05-23 16:51:00,90.1,67.2,29.78,ESE,123,7.0,8.0,47,0.00,,,0.00,Wunderground v.1.15,2013-05-23 21:51:00,
2013-05-23 16:52:00,90.3,67.9,29.78,SSE,148,7.0,8.0,48,0.00,,,0.00,Wunderground v.1.15,2013-05-23 21:52:00,
2013-05-23 16:59:00,90.1,68.4,29.78,East,80,8.0,11.0,49,0.00,,,0.00,Wunderground v.1.15,2013-05-23 21:59:00,
2013-05-23 17:01:00,90.1,67.8,29.77,SSE,154,9.0,14.0,48,0.00,,,0.00,Wunderground v.1.15,2013-05-23 22:01:00,
2013-05-23 17:02:00,89.9,67.6,29.77,SSE,161,9.0,14.0,48,0.00,,,0.00,Wunderground v.1.15,2013-05-23 22:02:00,
2013-05-23 17:04:00,89.7,68.0,29.77,SE,133,9.0,14.0,49,0.00,,,0.00,Wunderground v.1.15,2013-05-23 22:04:00,
2013-05-23 17:06:00,89.7,68.0,29.77,SE,126,9.0,14.0,49,0.00,,,0.00,Wunderground v.1.15,2013-05-23 22:06:00,
2013-05-23 17:09:00,89.3,68.2,29.77,East,93,9.0,9.0,50,0.00,,,0.00,Wunderground v.1.15,2013-05-23 22:09:00,
2013-05-23 17:10:00,89.3,68.2,29.77,East,83,9.0,9.0,50,0.00,,,0.00,Wunderground v.1.15,2013-05-23 22:10:00,
2013-05-23 17:11:00,89.3,68.2,29.77,ESE,110,8.0,9.0,50,0.00,,,0.00,Wunderground v.1.15,2013-05-23 22:11:00,
2013-05-23 17:14:00,89.3,68.2,29.77,SE,140,8.0,10.0,50,0.00,,,0.00,Wunderground v.1.15,2013-05-23 22:14:00,
2013-05-23 17:18:00,89.0,67.9,29.76,SE,137,8.0,8.0,50,0.00,,,0.00,Wunderground v.1.15,2013-05-23 22:18:00,
2013-05-23 17:19:00,89.0,67.9,29.76,SE,145,8.0,9.0,50,0.00,,,0.00,Wunderground v.1.15,2013-05-23 22:19:00,
2013-05-23 17:20:00,89.0,67.9,29.76,SE,133,8.0,9.0,50,0.00,,,0.00,Wunderground v.1.15,2013-05-23 22:20:00,
2013-05-23 17:24:00,89.5,68.4,29.76,ESE,121,8.0,12.0,50,0.00,,,0.00,Wunderground v.1.15,2013-05-23 22:24:00,
2013-05-23 17:25:00,89.5,68.4,29.76,ESE,114,8.0,13.0,50,0.00,,,0.00,Wunderground v.1.15,2013-05-23 22:25:00,
2013-05-23 17:29:00,89.7,68.6,29.76,SE,141,8.0,17.0,50,0.00,,,0.00,Wunderground v.1.15,2013-05-23 22:29:00,
2013-05-23 17:30:00,89.9,68.2,29.76,SE,134,9.0,17.0,49,0.00,,,0.00,Wunderground v.1.15,2013-05-23 22:30:00,
2013-05-23 17:31:00,89.9,67.6,29.76,SE,134,9.0,17.0,48,0.00,,,0.00,Wunderground v.1.15,2013-05-23 22:31:00,
2013-05-23 17:32:00,89.7,67.4,29.76,SE,138,9.0,17.0,48,0.00,,,0.00,Wunderground v.1.15,2013-05-23 22:32:00,
2013-05-23 17:38:00,89.3,68.2,29.76,SE,130,9.0,9.0,50,0.00,,,0.00,Wunderground v.1.15,2013-05-23 22:38:00,
2013-05-23 17:39:00,89.0,67.9,29.76,SSE,148,8.0,10.0,50,0.00,,,0.00,Wunderground v.1.15,2013-05-23 22:39:00,
2013-05-23 17:41:00,89.0,67.9,29.76,SE,128,7.0,11.0,50,0.00,,,0.00,Wunderground v.1.15,2013-05-23 22:41:00,
2013-05-23 17:45:00,89.5,67.8,29.76,ESE,114,8.0,18.0,49,0.00,,,0.00,Wunderground v.1.15,2013-05-23 22:45:00,
2013-05-23 17:46:00,89.5,67.8,29.75,SE,144,8.0,18.0,49,0.00,,,0.00,Wunderground v.1.15,2013-05-23 22:46:00,
2013-05-23 17:49:00,89.5,68.4,29.75,SSE,158,9.0,9.0,50,0.00,,,0.00,Wunderground v.1.15,2013-05-23 22:49:00,
2013-05-23 17:51:00,89.7,68.6,29.75,SE,128,9.0,9.0,50,0.00,,,0.00,Wunderground v.1.15,2013-05-23 22:51:00,
2013-05-23 17:53:00,89.9,68.2,29.75,SE,144,9.0,10.0,49,0.00,,,0.00,Wunderground v.1.15,2013-05-23 22:53:00,
2013-05-23 17:55:00,90.1,68.4,29.75,SSE,154,8.0,13.0,49,0.00,,,0.00,Wunderground v.1.15,2013-05-23 22:55:00,
2013-05-23 17:59:00,89.9,67.6,29.75,SSW,192,9.0,16.0,48,0.00,,,0.00,Wunderground v.1.15,2013-05-23 22:59:00,
2013-05-23 18:00:00,89.9,68.2,29.75,SE,141,9.0,16.0,49,0.00,,,0.00,Wunderground v.1.15,2013-05-23 23:00:00,
2013-05-23 18:01:00,89.7,68.0,29.74,SSE,160,9.0,16.0,49,0.00,,,0.00,Wunderground v.1.15,2013-05-23 23:01:00,
2013-05-23 18:02:00,89.7,68.0,29.74,SE,136,10.0,16.0,49,0.00,,,0.00,Wunderground v.1.15,2013-05-23 23:02:00,
2013-05-23 18:04:00,89.7,68.0,29.74,SE,138,10.0,16.0,49,0.00,,,0.00,Wunderground v.1.15,2013-05-23 23:04:00,
2013-05-23 18:06:00,89.5,67.8,29.74,ESE,116,10.0,16.0,49,0.00,,,0.00,Wunderground v.1.15,2013-05-23 23:06:00,
2013-05-23 18:11:00,89.0,67.4,29.74,SSE,158,11.0,17.0,49,0.00,,,0.00,Wunderground v.1.15,2013-05-23 23:11:00,
2013-05-23 18:12:00,89.0,67.9,29.74,SE,140,11.0,17.0,50,0.00,,,0.00,Wunderground v.1.15,2013-05-23 23:12:00,
2013-05-23 18:14:00,89.0,67.9,29.74,East,96,10.0,17.0,50,0.00,,,0.00,Wunderground v.1.15,2013-05-23 23:14:00,
2013-05-23 18:15:00,88.8,67.8,29.74,SE,137,10.0,17.0,50,0.00,,,0.00,Wunderground v.1.15,2013-05-23 23:15:00,
2013-05-23 18:18:00,88.8,67.8,29.74,SE,145,10.0,10.0,50,0.00,,,0.00,Wunderground v.1.15,2013-05-23 23:18:00,
2013-05-23 18:21:00,88.6,67.6,29.74,SE,136,9.0,11.0,50,0.00,,,0.00,Wunderground v.1.15,2013-05-23 23:21:00,
2013-05-23 18:22:00,88.4,67.4,29.74,SE,140,8.0,11.0,50,0.00,,,0.00,Wunderground v.1.15,2013-05-23 23:22:00,
2013-05-23 18:23:00,88.4,67.4,29.74,SSE,147,8.0,11.0,50,0.00,,,0.00,Wunderground v.1.15,2013-05-23 23:23:00,
2013-05-23 18:24:00,88.4,67.4,29.74,SE,140,8.0,11.0,50,0.00,,,0.00,Wunderground v.1.15,2013-05-23 23:24:00,
2013-05-23 18:29:00,88.4,68.0,29.74,ENE,78,7.0,7.0,51,0.00,,,0.00,Wunderground v.1.15,2013-05-23 23:29:00,
2013-05-23 18:30:00,88.4,68.0,29.74,ESE,117,7.0,7.0,51,0.00,,,0.00,Wunderground v.1.15,2013-05-23 23:30:00,
2013-05-23 18:31:00,88.4,68.0,29.73,East,99,7.0,8.0,51,0.00,,,0.00,Wunderground v.1.15,2013-05-23 23:31:00,
2013-05-23 18:33:00,88.2,67.8,29.73,ENE,78,8.0,8.0,51,0.00,,,0.00,Wunderground v.1.15,2013-05-23 23:33:00,
2013-05-23 18:34:00,88.0,67.6,29.73,ESE,114,7.0,8.0,51,0.00,,,0.00,Wunderground v.1.15,2013-05-23 23:34:00,
2013-05-23 18:38:00,87.8,67.4,29.73,ESE,117,8.0,8.0,51,0.00,,,0.00,Wunderground v.1.15,2013-05-23 23:38:00,
2013-05-23 18:39:00,87.8,68.0,29.73,ESE,119,7.0,8.0,52,0.00,,,0.00,Wunderground v.1.15,2013-05-23 23:39:00,
2013-05-23 18:40:00,87.8,68.0,29.73,East,99,7.0,8.0,52,0.00,,,0.00,Wunderground v.1.15,2013-05-23 23:40:00,
2013-05-23 18:41:00,87.8,68.0,29.73,SE,137,7.0,11.0,52,0.00,,,0.00,Wunderground v.1.15,2013-05-23 23:41:00,
2013-05-23 18:44:00,87.8,68.0,29.73,East,90,8.0,11.0,52,0.00,,,0.00,Wunderground v.1.15,2013-05-23 23:44:00,
2013-05-23 18:45:00,87.6,67.8,29.73,ESE,114,8.0,11.0,52,0.00,,,0.00,Wunderground v.1.15,2013-05-23 23:45:00,
2013-05-23 18:46:00,87.6,67.8,29.73,ESE,117,8.0,11.0,52,0.00,,,0.00,Wunderground v.1.15,2013-05-23 23:46:00,
2013-05-23 18:49:00,87.6,67.8,29.73,ESE,113,8.0,8.0,52,0.00,,,0.00,Wunderground v.1.15,2013-05-23 23:49:00,
2013-05-23 18:50:00,87.8,68.0,29.73,ESE,120,8.0,11.0,52,0.00,,,0.00,Wunderground v.1.15,2013-05-23 23:50:00,
2013-05-23 18:52:00,87.8,68.0,29.73,SE,134,7.0,11.0,52,0.00,,,0.00,Wunderground v.1.15,2013-05-23 23:52:00,
2013-05-23 18:53:00,87.8,68.0,29.73,SE,126,7.0,11.0,52,0.00,,,0.00,Wunderground v.1.15,2013-05-23 23:53:00,
2013-05-23 18:55:00,87.8,68.0,29.73,SE,141,7.0,12.0,52,0.00,,,0.00,Wunderground v.1.15,2013-05-23 23:55:00,
2013-05-23 18:58:00,87.8,68.5,29.73,SE,128,7.0,8.0,53,0.00,,,0.00,Wunderground v.1.15,2013-05-23 23:58:00,
2013-05-23 18:59:00,87.6,68.4,29.73,SW,217,7.0,8.0,53,0.00,,,0.00,Wunderground v.1.15,2013-05-23 23:59:00,
2013-05-23 19:00:00,87.6,67.8,29.73,ESE,119,8.0,8.0,52,0.00,,,0.00,Wunderground v.1.15,2013-05-24 00:00:00,
2013-05-23 19:02:00,87.6,67.8,29.73,ESE,123,8.0,12.0,52,0.00,,,0.00,Wunderground v.1.15,2013-05-24 00:02:00,
2013-05-23 19:04:00,87.4,67.6,29.73,East,88,9.0,12.0,52,0.00,,,0.00,Wunderground v.1.15,2013-05-24 00:04:00,
2013-05-23 19:05:00,87.4,67.6,29.73,ESE,106,9.0,12.0,52,0.00,,,0.00,Wunderground v.1.15,2013-05-24 00:05:00,
2013-05-23 19:08:00,87.4,68.2,29.73,ESE,104,9.0,9.0,53,0.00,,,0.00,Wunderground v.1.15,2013-05-24 00:08:00,
2013-05-23 19:10:00,87.4,68.2,29.73,SE,133,9.0,11.0,53,0.00,,,0.00,Wunderground v.1.15,2013-05-24 00:10:00,
2013-05-23 19:11:00,87.4,68.2,29.73,South,175,9.0,11.0,53,0.00,,,0.00,Wunderground v.1.15,2013-05-24 00:11:00,
2013-05-23 19:14:00,87.2,68.0,29.73,ESE,121,9.0,11.0,53,0.00,,,0.00,Wunderground v.1.15,2013-05-24 00:14:00,
2013-05-23 19:15:00,87.2,68.5,29.73,SE,124,8.0,11.0,54,0.00,,,0.00,Wunderground v.1.15,2013-05-24 00:15:00,
2013-05-23 19:16:00,87.2,68.0,29.73,SSE,160,8.0,11.0,53,0.00,,,0.00,Wunderground v.1.15,2013-05-24 00:16:00,
2013-05-23 19:20:00,87.2,68.0,29.73,SE,126,7.0,13.0,53,0.00,,,0.00,Wunderground v.1.15,2013-05-24 00:20:00,
2013-05-23 19:22:00,87.0,68.3,29.73,SE,128,8.0,13.0,54,0.00,,,0.00,Wunderground v.1.15,2013-05-24 00:22:00,
2013-05-23 19:25:00,86.7,68.6,29.73,SE,136,9.0,13.0,55,0.00,,,0.00,Wunderground v.1.15,2013-05-24 00:25:00,
2013-05-23 19:26:00,86.7,68.6,29.73,ESE,113,9.0,13.0,55,0.00,,,0.00,Wunderground v.1.15,2013-05-24 00:26:00,
2013-05-23 19:28:00,86.7,68.6,29.73,SE,134,9.0,9.0,55,0.00,,,0.00,Wunderground v.1.15,2013-05-24 00:28:00,
2013-05-23 19:31:00,86.7,68.6,29.73,SE,126,9.0,17.0,55,0.00,,,0.00,Wunderground v.1.15,2013-05-24 00:31:00,
2013-05-23 19:32:00,86.7,68.6,29.73,SE,124,8.0,17.0,55,0.00,,,0.00,Wunderground v.1.15,2013-05-24 00:32:00,
2013-05-23 19:34:00,86.5,68.4,29.73,SE,133,7.0,17.0,55,0.00,,,0.00,Wunderground v.1.15,2013-05-24 00:34:00,
2013-05-23 19:35:00,86.5,68.4,29.73,ESE,120,7.0,17.0,55,0.00,,,0.00,Wunderground v.1.15,2013-05-24 00:35:00,
2013-05-23 19:36:00,86.5,68.4,29.73,SE,131,7.0,17.0,55,0.00,,,0.00,Wunderground v.1.15,2013-05-24 00:36:00,
2013-05-23 19:38:00,86.5,68.9,29.73,ESE,120,7.0,7.0,56,0.00,,,0.00,Wunderground v.1.15,2013-05-24 00:38:00,
2013-05-23 19:40:00,86.3,68.8,29.73,SE,140,7.0,10.0,56,0.00,,,0.00,Wunderground v.1.15,2013-05-24 00:40:00,
2013-05-23 19:43:00,86.1,69.1,29.73,ESE,110,8.0,21.0,57,0.00,,,0.00,Wunderground v.1.15,2013-05-24 00:43:00,
2013-05-23 19:46:00,85.9,68.9,29.74,ESE,104,9.0,21.0,57,0.00,,,0.00,Wunderground v.1.15,2013-05-24 00:46:00,
2013-05-23 19:48:00,85.9,68.9,29.74,ESE,117,9.0,11.0,57,0.00,,,0.00,Wunderground v.1.15,2013-05-24 00:48:00,
2013-05-23 19:49:00,85.9,68.9,29.74,SE,143,9.0,11.0,57,0.00,,,0.00,Wunderground v.1.15,2013-05-24 00:49:00,
2013-05-23 19:50:00,85.9,68.9,29.74,SE,140,9.0,11.0,57,0.00,,,0.00,Wunderground v.1.15,2013-05-24 00:50:00,
2013-05-23 19:51:00,85.9,68.9,29.74,SE,131,9.0,11.0,57,0.00,,,0.00,Wunderground v.1.15,2013-05-24 00:51:00,
2013-05-23 19:52:00,85.7,68.7,29.74,ESE,121,9.0,11.0,57,0.00,,,0.00,Wunderground v.1.15,2013-05-24 00:52:00,
2013-05-23 19:55:00,85.7,69.2,29.74,SE,131,7.0,11.0,58,0.00,,,0.00,Wunderground v.1.15,2013-05-24 00:55:00,
2013-05-23 19:59:00,85.5,69.0,29.74,SE,136,6.0,12.0,58,0.00,,,0.00,Wunderground v.1.15,2013-05-24 00:59:00,
2013-05-23 20:00:00,85.5,69.0,29.74,ESE,119,6.0,12.0,58,0.00,,,0.00,Wunderground v.1.15,2013-05-24 01:00:00,
2013-05-23 20:02:00,85.3,68.8,29.75,SE,138,6.0,12.0,58,0.00,,,0.00,Wunderground v.1.15,2013-05-24 01:02:00,
2013-05-23 20:05:00,85.3,69.3,29.75,ESE,107,7.0,12.0,59,0.00,,,0.00,Wunderground v.1.15,2013-05-24 01:05:00,
2013-05-23 20:06:00,85.3,69.3,29.75,ESE,103,7.0,12.0,59,0.00,,,0.00,Wunderground v.1.15,2013-05-24 01:06:00,
2013-05-23 20:07:00,85.1,69.2,29.75,SE,137,7.0,12.0,59,0.00,,,0.00,Wunderground v.1.15,2013-05-24 01:07:00,
2013-05-23 20:11:00,84.9,69.5,29.75,SE,126,9.0,12.0,60,0.00,,,0.00,Wunderground v.1.15,2013-05-24 01:11:00,
2013-05-23 20:13:00,84.9,69.9,29.75,SE,126,9.0,12.0,61,0.00,,,0.00,Wunderground v.1.15,2013-05-24 01:13:00,
2013-05-23 20:15:00,84.7,69.8,29.75,ESE,116,9.0,12.0,61,0.00,,,0.00,Wunderground v.1.15,2013-05-24 01:15:00,
2013-05-23 20:16:00,84.7,69.8,29.76,SE,127,9.0,12.0,61,0.00,,,0.00,Wunderground v.1.15,2013-05-24 01:16:00,
2013-05-23 20:20:00,84.5,69.6,29.76,ESE,117,8.0,12.0,61,0.00,,,0.00,Wunderground v.1.15,2013-05-24 01:20:00,
2013-05-23 20:22:00,84.5,70.0,29.76,ESE,113,7.0,13.0,62,0.00,,,0.00,Wunderground v.1.15,2013-05-24 01:22:00,
2013-05-23 20:24:00,84.3,69.9,29.76,SE,136,7.0,13.0,62,0.00,,,0.00,Wunderground v.1.15,2013-05-24 01:24:00,
2013-05-23 20:25:00,84.3,69.9,29.76,ESE,121,7.0,13.0,62,0.00,,,0.00,Wunderground v.1.15,2013-05-24 01:25:00,
2013-05-23 20:29:00,84.1,69.7,29.76,SE,130,8.0,8.0,62,0.00,,,0.00,Wunderground v.1.15,2013-05-24 01:29:00,
2013-05-23 20:30:00,84.1,69.7,29.76,SE,128,8.0,8.0,62,0.00,,,0.00,Wunderground v.1.15,2013-05-24 01:30:00,
2013-05-23 20:32:00,84.1,69.7,29.78,SE,140,7.0,8.0,62,0.00,,,0.00,Wunderground v.1.15,2013-05-24 01:32:00,
2013-05-23 20:33:00,84.1,69.7,29.78,SE,137,7.0,8.0,62,0.00,,,0.00,Wunderground v.1.15,2013-05-24 01:33:00,
2013-05-23 20:35:00,84.0,69.6,29.78,ESE,103,7.0,11.0,62,0.00,,,0.00,Wunderground v.1.15,2013-05-24 01:35:00,
2013-05-23 20:36:00,84.0,69.6,29.78,ESE,117,6.0,11.0,62,0.00,,,0.00,Wunderground v.1.15,2013-05-24 01:36:00,
2013-05-23 20:40:00,83.8,69.9,29.78,SE,130,7.0,7.0,63,0.00,,,0.00,Wunderground v.1.15,2013-05-24 01:40:00,
2013-05-23 20:41:00,83.8,69.9,29.78,South,181,7.0,7.0,63,0.00,,,0.00,Wunderground v.1.15,2013-05-24 01:41:00,
2013-05-23 20:43:00,83.8,69.9,29.78,SSE,151,6.0,7.0,63,0.00,,,0.00,Wunderground v.1.15,2013-05-24 01:43:00,
2013-05-23 20:46:00,83.6,70.1,29.80,SE,140,6.0,10.0,64,0.00,,,0.00,Wunderground v.1.15,2013-05-24 01:46:00,
2013-05-23 20:47:00,83.6,70.1,29.80,SSE,150,5.0,10.0,64,0.00,,,0.00,Wunderground v.1.15,2013-05-24 01:47:00,
2013-05-23 20:49:00,83.4,69.9,29.80,SSE,148,5.0,8.0,64,0.00,,,0.00,Wunderground v.1.15,2013-05-24 01:49:00,
2013-05-23 20:50:00,83.4,70.4,29.80,ESE,106,5.0,8.0,65,0.00,,,0.00,Wunderground v.1.15,2013-05-24 01:50:00,
2013-05-23 20:51:00,83.4,70.4,29.80,SE,126,6.0,8.0,65,0.00,,,0.00,Wunderground v.1.15,2013-05-24 01:51:00,
2013-05-23 20:53:00,83.4,70.4,29.80,SE,128,6.0,8.0,65,0.00,,,0.00,Wunderground v.1.15,2013-05-24 01:53:00,
2013-05-23 20:56:00,83.2,70.2,29.80,SE,137,6.0,13.0,65,0.00,,,0.00,Wunderground v.1.15,2013-05-24 01:56:00,
2013-05-23 20:59:00,83.0,70.0,29.80,East,95,6.0,6.0,65,0.00,,,0.00,Wunderground v.1.15,2013-05-24 01:59:00,
2013-05-23 21:00:00,83.0,70.0,29.80,East,95,6.0,6.0,65,0.00,,,0.00,Wunderground v.1.15,2013-05-24 02:00:00,
2013-05-23 21:02:00,83.0,70.0,29.82,ESE,107,5.0,6.0,65,0.00,,,0.00,Wunderground v.1.15,2013-05-24 02:02:00,
2013-05-23 21:05:00,82.8,69.8,29.82,ESE,103,4.0,6.0,65,0.00,,,0.00,Wunderground v.1.15,2013-05-24 02:05:00,
2013-05-23 21:06:00,82.8,69.8,29.82,ESE,109,4.0,6.0,65,0.00,,,0.00,Wunderground v.1.15,2013-05-24 02:06:00,
2013-05-23 21:11:00,82.6,69.6,29.82,ESE,117,4.0,7.0,65,0.00,,,0.00,Wunderground v.1.15,2013-05-24 02:11:00,
2013-05-23 21:12:00,82.6,69.6,29.82,SE,127,4.0,7.0,65,0.00,,,0.00,Wunderground v.1.15,2013-05-24 02:12:00,
2013-05-23 21:13:00,82.6,70.1,29.82,ESE,117,4.0,7.0,66,0.00,,,0.00,Wunderground v.1.15,2013-05-24 02:13:00,
2013-05-23 21:15:00,82.4,69.9,29.82,ESE,103,5.0,7.0,66,0.00,,,0.00,Wunderground v.1.15,2013-05-24 02:15:00,
2013-05-23 21:16:00,82.4,69.9,29.82,SE,128,5.0,7.0,66,0.00,,,0.00,Wunderground v.1.15,2013-05-24 02:16:00,
2013-05-23 21:19:00,82.4,69.9,29.83,ESE,109,5.0,5.0,66,0.00,,,0.00,Wunderground v.1.15,2013-05-24 02:19:00,
2013-05-23 21:21:00,82.2,69.7,29.83,ESE,113,5.0,5.0,66,0.00,,,0.00,Wunderground v.1.15,2013-05-24 02:21:00,
2013-05-23 21:22:00,82.2,69.7,29.83,ESE,107,5.0,5.0,66,0.00,,,0.00,Wunderground v.1.15,2013-05-24 02:22:00,
2013-05-23 21:23:00,82.2,70.1,29.83,ESE,107,5.0,5.0,67,0.00,,,0.00,Wunderground v.1.15,2013-05-24 02:23:00,
2013-05-23 21:25:00,82.2,70.1,29.83,ESE,109,4.0,6.0,67,0.00,,,0.00,Wunderground v.1.15,2013-05-24 02:25:00,
2013-05-23 21:27:00,82.0,70.0,29.83,SE,134,4.0,7.0,67,0.00,,,0.00,Wunderground v.1.15,2013-05-24 02:27:00,
2013-05-23 21:30:00,81.8,69.8,29.83,ESE,112,4.0,7.0,67,0.00,,,0.00,Wunderground v.1.15,2013-05-24 02:30:00,
2013-05-23 21:31:00,81.8,69.8,29.83,East,97,4.0,10.0,67,0.00,,,0.00,Wunderground v.1.15,2013-05-24 02:31:00,
2013-05-23 21:33:00,81.8,69.8,29.84,SE,127,5.0,10.0,67,0.00,,,0.00,Wunderground v.1.15,2013-05-24 02:33:00,
2013-05-23 21:35:00,81.8,70.2,29.84,SE,128,5.0,10.0,68,0.00,,,0.00,Wunderground v.1.15,2013-05-24 02:35:00,
2013-05-23 21:36:00,81.6,70.0,29.84,ESE,116,5.0,10.0,68,0.00,,,0.00,Wunderground v.1.15,2013-05-24 02:36:00,
2013-05-23 21:39:00,81.6,70.0,29.84,ESE,116,5.0,5.0,68,0.00,,,0.00,Wunderground v.1.15,2013-05-24 02:39:00,
2013-05-23 21:41:00,81.6,70.0,29.84,ESE,120,5.0,6.0,68,0.00,,,0.00,Wunderground v.1.15,2013-05-24 02:41:00,
2013-05-23 21:43:00,81.6,70.0,29.84,SE,130,5.0,7.0,68,0.00,,,0.00,Wunderground v.1.15,2013-05-24 02:43:00,
2013-05-23 21:45:00,81.4,69.8,29.84,ESE,110,5.0,12.0,68,0.00,,,0.00,Wunderground v.1.15,2013-05-24 02:45:00,
2013-05-23 21:46:00,81.4,69.8,29.84,SE,128,5.0,12.0,68,0.00,,,0.00,Wunderground v.1.15,2013-05-24 02:46:00,
2013-05-23 21:47:00,81.4,69.8,29.86,ESE,117,5.0,12.0,68,0.00,,,0.00,Wunderground v.1.15,2013-05-24 02:47:00,
2013-05-23 21:50:00,81.4,70.2,29.86,SE,133,4.0,6.0,69,0.00,,,0.00,Wunderground v.1.15,2013-05-24 02:50:00,
2013-05-23 21:51:00,81.2,70.1,29.86,ESE,119,4.0,6.0,69,0.00,,,0.00,Wunderground v.1.15,2013-05-24 02:51:00,
2013-05-23 21:54:00,81.2,70.1,29.86,SSE,162,4.0,6.0,69,0.00,,,0.00,Wunderground v.1.15,2013-05-24 02:54:00,
2013-05-23 21:56:00,81.2,70.1,29.86,SSE,147,3.0,6.0,69,0.00,,,0.00,Wunderground v.1.15,2013-05-24 02:56:00,
2013-05-23 21:57:00,81.1,70.0,29.86,SSE,147,3.0,6.0,69,0.00,,,0.00,Wunderground v.1.15,2013-05-24 02:57:00,
2013-05-23 22:00:00,81.1,70.0,29.86,SE,133,2.0,5.0,69,0.00,,,0.00,Wunderground v.1.15,2013-05-24 03:00:00,
2013-05-23 22:01:00,81.1,70.0,29.86,SSE,147,2.0,5.0,69,0.00,,,0.00,Wunderground v.1.15,2013-05-24 03:01:00,
2013-05-23 22:06:00,80.9,70.2,29.87,SE,131,4.0,7.0,70,0.00,,,0.00,Wunderground v.1.15,2013-05-24 03:06:00,
2013-05-23 22:07:00,80.9,70.2,29.87,SE,144,4.0,7.0,70,0.00,,,0.00,Wunderground v.1.15,2013-05-24 03:07:00,
2013-05-23 22:09:00,80.9,70.2,29.87,SSE,155,5.0,5.0,70,0.00,,,0.00,Wunderground v.1.15,2013-05-24 03:09:00,
2013-05-23 22:11:00,80.7,70.0,29.87,SE,140,5.0,10.0,70,0.00,,,0.00,Wunderground v.1.15,2013-05-24 03:11:00,
2013-05-23 22:13:00,80.7,70.0,29.87,SE,144,5.0,10.0,70,0.00,,,0.00,Wunderground v.1.15,2013-05-24 03:13:00,
2013-05-23 22:16:00,80.7,70.4,29.87,SE,131,5.0,10.0,71,0.00,,,0.00,Wunderground v.1.15,2013-05-24 03:16:00,
2013-05-23 22:19:00,80.5,70.2,29.88,SE,127,5.0,5.0,71,0.00,,,0.00,Wunderground v.1.15,2013-05-24 03:19:00,
2013-05-23 22:20:00,80.5,70.2,29.88,ESE,113,5.0,5.0,71,0.00,,,0.00,Wunderground v.1.15,2013-05-24 03:20:00,
2013-05-23 22:21:00,80.5,70.2,29.88,ESE,109,6.0,6.0,71,0.00,,,0.00,Wunderground v.1.15,2013-05-24 03:21:00,
2013-05-23 22:22:00,80.5,70.2,29.88,SE,136,6.0,6.0,71,0.00,,,0.00,Wunderground v.1.15,2013-05-24 03:22:00,
2013-05-23 22:24:00,80.5,70.2,29.88,SE,128,6.0,6.0,71,0.00,,,0.00,Wunderground v.1.15,2013-05-24 03:24:00,
2013-05-23 22:27:00,80.3,70.0,29.88,SE,131,6.0,6.0,71,0.00,,,0.00,Wunderground v.1.15,2013-05-24 03:27:00,
2013-05-23 22:29:00,80.3,70.0,29.88,SE,131,4.0,4.0,71,0.00,,,0.00,Wunderground v.1.15,2013-05-24 03:29:00,
2013-05-23 22:30:00,80.3,70.0,29.88,SE,131,4.0,4.0,71,0.00,,,0.00,Wunderground v.1.15,2013-05-24 03:30:00,
2013-05-23 22:31:00,80.3,70.0,29.88,ESE,120,4.0,6.0,71,0.00,,,0.00,Wunderground v.1.15,2013-05-24 03:31:00,
2013-05-23 22:35:00,80.1,70.3,29.88,ESE,123,3.0,6.0,72,0.00,,,0.00,Wunderground v.1.15,2013-05-24 03:35:00,
2013-05-23 22:36:00,80.1,70.3,29.88,SE,126,3.0,6.0,72,0.00,,,0.00,Wunderground v.1.15,2013-05-24 03:36:00,
2013-05-23 22:37:00,79.9,70.1,29.88,ESE,114,3.0,6.0,72,0.00,,,0.00,Wunderground v.1.15,2013-05-24 03:37:00,
2013-05-23 22:39:00,79.9,70.1,29.88,SE,131,3.0,7.0,72,0.00,,,0.00,Wunderground v.1.15,2013-05-24 03:39:00,
2013-05-23 22:42:00,79.8,70.0,29.88,SE,134,4.0,8.0,72,0.00,,,0.00,Wunderground v.1.15,2013-05-24 03:42:00,
2013-05-23 22:43:00,79.8,70.0,29.88,ESE,123,4.0,8.0,72,0.00,,,0.00,Wunderground v.1.15,2013-05-24 03:43:00,
2013-05-23 22:44:00,79.8,70.0,29.88,ESE,119,5.0,8.0,72,0.00,,,0.00,Wunderground v.1.15,2013-05-24 03:44:00,
2013-05-23 22:47:00,79.6,70.2,29.88,SSE,147,5.0,8.0,73,0.00,,,0.00,Wunderground v.1.15,2013-05-24 03:47:00,
2013-05-23 22:49:00,79.6,70.2,29.88,SE,130,5.0,5.0,73,0.00,,,0.00,Wunderground v.1.15,2013-05-24 03:49:00,
2013-05-23 22:50:00,79.6,70.2,29.88,ESE,106,5.0,5.0,73,0.00,,,0.00,Wunderground v.1.15,2013-05-24 03:50:00,
2013-05-23 22:51:00,79.6,70.2,29.88,ESE,121,5.0,6.0,73,0.00,,,0.00,Wunderground v.1.15,2013-05-24 03:51:00,
2013-05-23 22:56:00,79.6,70.6,29.88,SE,134,5.0,6.0,74,0.00,,,0.00,Wunderground v.1.15,2013-05-24 03:56:00,
2013-05-23 22:59:00,79.6,70.6,29.88,ESE,109,4.0,4.0,74,0.00,,,0.00,Wunderground v.1.15,2013-05-24 03:59:00,
2013-05-23 23:00:00,79.6,70.6,29.88,ESE,109,4.0,4.0,74,0.00,,,0.00,Wunderground v.1.15,2013-05-24 04:00:00,
2013-05-23 23:01:00,79.6,70.6,29.88,SSE,147,4.0,4.0,74,0.00,,,0.00,Wunderground v.1.15,2013-05-24 04:01:00,
2013-05-23 23:02:00,79.6,70.6,29.89,ESE,109,4.0,4.0,74,0.00,,,0.00,Wunderground v.1.15,2013-05-24 04:02:00,
2013-05-23 23:07:00,79.4,70.4,29.89,SE,137,4.0,7.0,74,0.00,,,0.00,Wunderground v.1.15,2013-05-24 04:07:00,
2013-05-23 23:11:00,79.4,70.8,29.89,East,99,5.0,7.0,75,0.00,,,0.00,Wunderground v.1.15,2013-05-24 04:11:00,
2013-05-23 23:12:00,79.4,70.8,29.89,ESE,120,5.0,7.0,75,0.00,,,0.00,Wunderground v.1.15,2013-05-24 04:12:00,
2013-05-23 23:14:00,79.2,70.6,29.89,ESE,106,6.0,8.0,75,0.00,,,0.00,Wunderground v.1.15,2013-05-24 04:14:00,
2013-05-23 23:16:00,79.2,70.6,29.89,SE,131,6.0,8.0,75,0.00,,,0.00,Wunderground v.1.15,2013-05-24 04:16:00,
2013-05-23 23:19:00,79.2,70.6,29.89,SE,128,6.0,6.0,75,0.00,,,0.00,Wunderground v.1.15,2013-05-24 04:19:00,
2013-05-23 23:20:00,79.2,70.6,29.89,ESE,123,6.0,6.0,75,0.00,,,0.00,Wunderground v.1.15,2013-05-24 04:20:00,
2013-05-23 23:21:00,79.0,70.4,29.89,SE,134,5.0,8.0,75,0.00,,,0.00,Wunderground v.1.15,2013-05-24 04:21:00,
2013-05-23 23:25:00,79.0,70.8,29.89,ESE,119,6.0,8.0,76,0.00,,,0.00,Wunderground v.1.15,2013-05-24 04:25:00,
2013-05-23 23:26:00,78.8,70.6,29.89,SE,131,6.0,8.0,76,0.00,,,0.00,Wunderground v.1.15,2013-05-24 04:26:00,
2013-05-23 23:29:00,78.8,70.6,29.89,ESE,116,7.0,7.0,76,0.00,,,0.00,Wunderground v.1.15,2013-05-24 04:29:00,
2013-05-23 23:30:00,78.8,70.6,29.89,ESE,120,7.0,7.0,76,0.00,,,0.00,Wunderground v.1.15,2013-05-24 04:30:00,
2013-05-23 23:31:00,78.6,70.4,29.89,SE,127,7.0,7.0,76,0.00,,,0.00,Wunderground v.1.15,2013-05-24 04:31:00,
2013-05-23 23:33:00,78.6,70.4,29.89,SSE,150,6.0,8.0,76,0.00,,,0.00,Wunderground v.1.15,2013-05-24 04:33:00,
2013-05-23 23:35:00,78.6,70.4,29.89,SE,134,7.0,9.0,76,0.00,,,0.00,Wunderground v.1.15,2013-05-24 04:35:00,
2013-05-23 23:39:00,78.5,70.7,29.89,SE,141,8.0,8.0,77,0.00,,,0.00,Wunderground v.1.15,2013-05-24 04:39:00,
2013-05-23 23:41:00,78.5,70.7,29.89,ESE,112,8.0,8.0,77,0.00,,,0.00,Wunderground v.1.15,2013-05-24 04:41:00,
2013-05-23 23:42:00,78.5,70.7,29.89,ESE,116,8.0,10.0,77,0.00,,,0.00,Wunderground v.1.15,2013-05-24 04:42:00,
2013-05-23 23:46:00,78.3,70.5,29.89,ESE,116,8.0,11.0,77,0.00,,,0.00,Wunderground v.1.15,2013-05-24 04:46:00,
2013-05-23 23:47:00,78.3,70.5,29.89,ESE,120,7.0,11.0,77,0.00,,,0.00,Wunderground v.1.15,2013-05-24 04:47:00,
2013-05-23 23:49:00,78.3,70.5,29.89,SE,140,7.0,7.0,77,0.00,,,0.00,Wunderground v.1.15,2013-05-24 04:49:00,
2013-05-23 23:51:00,78.3,70.5,29.89,SE,145,8.0,8.0,77,0.00,,,0.00,Wunderground v.1.15,2013-05-24 04:51:00,
2013-05-23 23:52:00,78.3,70.9,29.89,SE,124,7.0,8.0,78,0.00,,,0.00,Wunderground v.1.15,2013-05-24 04:52:00,
2013-05-23 23:55:00,78.3,70.9,29.89,ESE,116,6.0,8.0,78,0.00,,,0.00,Wunderground v.1.15,2013-05-24 04:55:00,
2013-05-23 23:59:00,78.3,70.9,29.89,East,100,5.0,7.0,78,0.00,,,0.00,Wunderground v.1.15,2013-05-24 04:59:00,